Observation data for Lake Alan Henry on 12/08/2018      Previous  Date       Current Mesonet Observations  Soil Data  Daily Summary Page  Observations in Plain Language
KAHS 080600Z 02007KT 00/00 A3027 RMK A01 T00030000  RH  098%=      5-min Rain = 0
KAHS 080601Z 04005KT 00/00 A3027 RMK A01 T00030000  RH  098%=      5-min Rain = 0
KAHS 080602Z 02006KT 00/00 A3027 RMK A01 T00040001  RH  098%=      5-min Rain = 0
KAHS 080603Z 02005KT 00/00 A3027 RMK A01 T00030000  RH  098%=      5-min Rain = 0
KAHS 080604Z 02006KT 00/00 A3027 RMK A01 T00030000  RH  098%=      5-min Rain = 0
KAHS 080605Z 02007KT 00/00 A3027 RMK A01 T00030000  RH  098%=      5-min Rain = 0
KAHS 080606Z 01004KT 00/00 A3027 RMK A01 T00030001  RH  098%=      5-min Rain = 0
KAHS 080607Z 01004KT 00/00 A3028 RMK A01 T00040001  RH  098%=      5-min Rain = 0
KAHS 080608Z 02006KT 00/00 A3028 RMK A01 T00040001  RH  098%=      5-min Rain = 0
KAHS 080609Z 02006KT 00/00 A3027 RMK A01 T00040001  RH  098%=      5-min Rain = 0
KAHS 080610Z 02008KT 00/00 A3027 RMK A01 T00030001  RH  098%=      5-min Rain = 0
KAHS 080611Z 02006KT 00/00 A3027 RMK A01 T00030000  RH  098%=      5-min Rain = 0
KAHS 080612Z 01008KT 00/00 A3027 RMK A01 T00030000  RH  098%=      5-min Rain = 0
KAHS 080613Z 02008KT 00/00 A3027 RMK A01 T00030000  RH  098%=      5-min Rain = 0
KAHS 080614Z 02006KT 00/00 A3027 RMK A01 T00030000  RH  098%=      5-min Rain = 0
KAHS 080615Z 02007KT 00/00 A3027 RMK A01 T00040001  RH  098%=      5-min Rain = 0
KAHS 080616Z 02008KT 00/00 A3027 RMK A01 T00040001  RH  098%=      5-min Rain = 0
KAHS 080617Z 02007KT 00/00 A3027 RMK A01 T00040001  RH  098%=      5-min Rain = 0
KAHS 080618Z 02008KT 00/00 A3027 RMK A01 T00040001  RH  098%=      5-min Rain = 0
KAHS 080619Z 02007KT 00/00 A3027 RMK A01 T00040001  RH  098%=      5-min Rain = 0
KAHS 080620Z 01008KT 00/00 A3027 RMK A01 T00040001  RH  098%=      5-min Rain = 0
KAHS 080621Z 01007KT 00/00 A3027 RMK A01 T00040001  RH  098%=      5-min Rain = 0
KAHS 080622Z 01007KT 00/00 A3028 RMK A01 T00040001  RH  098%=      5-min Rain = 0
KAHS 080623Z 02006KT 00/00 A3027 RMK A01 T00040001  RH  098%=      5-min Rain = 0
KAHS 080624Z 02007KT 00/00 A3027 RMK A01 T00040001  RH  098%=      5-min Rain = 0
KAHS 080625Z 02005KT 00/00 A3028 RMK A01 T00040001  RH  098%=      5-min Rain = 0
KAHS 080626Z 02006KT 00/00 A3028 RMK A01 T00040002  RH  098%=      5-min Rain = 0
KAHS 080627Z 01007KT 00/00 A3028 RMK A01 T00040002  RH  098%=      5-min Rain = 0.01
KAHS 080628Z 01007KT 00/00 A3028 RMK A01 T00040001  RH  098%=      5-min Rain = 0
KAHS 080629Z 03006KT 00/00 A3028 RMK A01 T00040001  RH  098%=      5-min Rain = 0
KAHS 080630Z 03007KT 00/00 A3028 RMK A01 T00040001  RH  098%=      5-min Rain = 0
KAHS 080631Z 02007KT 00/00 A3028 RMK A01 T00040001  RH  098%=      5-min Rain = 0
KAHS 080632Z 02008KT 00/00 A3028 RMK A01 T00040001  RH  098%=      5-min Rain = 0
KAHS 080633Z 02006KT 00/00 A3028 RMK A01 T00040001  RH  098%=      5-min Rain = 0
KAHS 080634Z 03006KT 00/00 A3028 RMK A01 T00040001  RH  098%=      5-min Rain = 0
KAHS 080635Z 03005KT 00/00 A3028 RMK A01 T00040001  RH  098%=      5-min Rain = 0
KAHS 080636Z 02005KT 00/00 A3028 RMK A01 T00040001  RH  098%=      5-min Rain = 0
KAHS 080637Z 02005KT 00/00 A3028 RMK A01 T00040001  RH  098%=      5-min Rain = 0
KAHS 080638Z 03005KT 01/00 A3028 RMK A01 T00050002  RH  098%=      5-min Rain = 0
KAHS 080639Z 02006KT 01/00 A3028 RMK A01 T00050002  RH  098%=      5-min Rain = 0
KAHS 080640Z 02007KT 00/00 A3028 RMK A01 T00040001  RH  098%=      5-min Rain = 0
KAHS 080641Z 02007KT 00/00 A3028 RMK A01 T00040002  RH  098%=      5-min Rain = 0
KAHS 080642Z 02007KT 00/00 A3028 RMK A01 T00040001  RH  098%=      5-min Rain = 0.01
KAHS 080643Z 02007KT 00/00 A3028 RMK A01 T00040001  RH  098%=      5-min Rain = 0
KAHS 080644Z 02007KT 00/00 A3028 RMK A01 T00040001  RH  098%=      5-min Rain = 0
KAHS 080645Z 02007KT 00/00 A3028 RMK A01 T00040001  RH  098%=      5-min Rain = 0
KAHS 080646Z 02006KT 00/00 A3028 RMK A01 T00040001  RH  098%=      5-min Rain = 0
KAHS 080647Z 01006KT 00/00 A3028 RMK A01 T00040001  RH  098%=      5-min Rain = 0
KAHS 080648Z 02008KT 00/00 A3028 RMK A01 T00040001  RH  098%=      5-min Rain = 0
KAHS 080649Z 02009KT 00/00 A3028 RMK A01 T00040001  RH  098%=      5-min Rain = 0
KAHS 080650Z 02009KT 00/00 A3028 RMK A01 T00040001  RH  098%=      5-min Rain = 0
KAHS 080651Z 01007KT 00/00 A3028 RMK A01 T00040001  RH  098%=      5-min Rain = 0
KAHS 080652Z 03008KT 01/00 A3028 RMK A01 T00050002  RH  098%=      5-min Rain = 0
KAHS 080653Z 03008KT 01/00 A3027 RMK A01 T00050002  RH  098%=      5-min Rain = 0
KAHS 080654Z 03008KT 01/00 A3027 RMK A01 T00050002  RH  098%=      5-min Rain = 0
KAHS 080655Z 03008KT 01/00 A3027 RMK A01 T00050002  RH  098%=      5-min Rain = 0
KAHS 080656Z 03009KT 01/00 A3027 RMK A01 T00050002  RH  098%=      5-min Rain = 0.01
KAHS 080657Z 03008KT 01/00 A3027 RMK A01 T00050002  RH  098%=      5-min Rain = 0
KAHS 080658Z 02008KT 01/00 A3027 RMK A01 T00050002  RH  098%=      5-min Rain = 0
KAHS 080659Z 03008KT 01/00 A3027 RMK A01 T00050002  RH  098%=      5-min Rain = 0
KAHS 080700Z 02010KT 01/00 A3027 RMK A01 T00050002  RH  098%=      5-min Rain = 0
KAHS 080701Z 02009KT 00/00 A3027 RMK A01 T00040001  RH  098%=      5-min Rain = 0
KAHS 080702Z 03010KT 00/00 A3027 RMK A01 T00040001  RH  098%=      5-min Rain = 0
KAHS 080703Z 03010KT 00/00 A3027 RMK A01 T00040001  RH  098%=      5-min Rain = 0
KAHS 080704Z 03008KT 00/00 A3027 RMK A01 T00040001  RH  098%=      5-min Rain = 0
KAHS 080705Z 03007KT 00/00 A3027 RMK A01 T00040001  RH  098%=      5-min Rain = 0.01
KAHS 080706Z 02010KT 00/00 A3027 RMK A01 T00040001  RH  098%=      5-min Rain = 0
KAHS 080707Z 03009KT 00/00 A3027 RMK A01 T00040001  RH  098%=      5-min Rain = 0
KAHS 080708Z 03010KT 00/00 A3027 RMK A01 T00040001  RH  098%=      5-min Rain = 0
KAHS 080709Z 03012KT 00/00 A3027 RMK A01 T00040001  RH  098%=      5-min Rain = 0
KAHS 080710Z 03011KT 00/00 A3027 RMK A01 T00040001  RH  098%=      5-min Rain = 0
KAHS 080711Z 03010KT 00/00 A3027 RMK A01 T00040001  RH  098%=      5-min Rain = 0
KAHS 080712Z 03009KT 00/00 A3027 RMK A01 T00040001  RH  098%=      5-min Rain = 0
KAHS 080713Z 03007KT 00/00 A3027 RMK A01 T00040001  RH  098%=      5-min Rain = 0
KAHS 080714Z 02011KT 00/00 A3027 RMK A01 T00040001  RH  098%=      5-min Rain = 0.01
KAHS 080715Z 03010KT 00/00 A3027 RMK A01 T00040001  RH  098%=      5-min Rain = 0
KAHS 080716Z 03008KT 00/00 A3027 RMK A01 T00040001  RH  098%=      5-min Rain = 0
KAHS 080717Z 03008KT 00/00 A3027 RMK A01 T00040001  RH  098%=      5-min Rain = 0
KAHS 080718Z 03007KT 00/00 A3027 RMK A01 T00040001  RH  098%=      5-min Rain = 0
KAHS 080719Z 03009KT 00/00 A3027 RMK A01 T00040001  RH  098%=      5-min Rain = 0
KAHS 080720Z 02009KT 00/00 A3027 RMK A01 T00040001  RH  098%=      5-min Rain = 0
KAHS 080721Z 02008KT 00/00 A3027 RMK A01 T00040001  RH  098%=      5-min Rain = 0
KAHS 080722Z 03009KT 00/00 A3027 RMK A01 T00040001  RH  098%=      5-min Rain = 0
KAHS 080723Z 03008KT 00/00 A3027 RMK A01 T00040001  RH  098%=      5-min Rain = 0
KAHS 080724Z 03007KT 00/00 A3027 RMK A01 T00040001  RH  098%=      5-min Rain = 0
KAHS 080725Z 03007KT 00/00 A3027 RMK A01 T00040001  RH  098%=      5-min Rain = 0
KAHS 080726Z 03008KT 00/00 A3027 RMK A01 T00040001  RH  098%=      5-min Rain = 0
KAHS 080727Z 03010KT 00/00 A3027 RMK A01 T00040001  RH  098%=      5-min Rain = 0
KAHS 080728Z 03008KT 00/00 A3027 RMK A01 T00040001  RH  098%=      5-min Rain = 0.01
KAHS 080729Z 03008KT 00/00 A3027 RMK A01 T00040001  RH  098%=      5-min Rain = 0
KAHS 080730Z 03007KT 01/00 A3027 RMK A01 T00050002  RH  098%=      5-min Rain = 0
KAHS 080731Z 03007KT 01/00 A3027 RMK A01 T00050002  RH  098%=      5-min Rain = 0
KAHS 080732Z 03008KT 01/00 A3027 RMK A01 T00050002  RH  098%=      5-min Rain = 0
KAHS 080733Z 03008KT 00/00 A3027 RMK A01 T00040002  RH  098%=      5-min Rain = 0
KAHS 080734Z 03008KT 00/00 A3027 RMK A01 T00040001  RH  098%=      5-min Rain = 0
KAHS 080735Z 03008KT 00/00 A3027 RMK A01 T00040001  RH  098%=      5-min Rain = 0
KAHS 080736Z 03007KT 01/00 A3027 RMK A01 T00050002  RH  098%=      5-min Rain = 0
KAHS 080737Z 03006KT 01/00 A3027 RMK A01 T00050002  RH  098%=      5-min Rain = 0
KAHS 080738Z 03008KT 01/00 A3027 RMK A01 T00050002  RH  098%=      5-min Rain = 0
KAHS 080739Z 03008KT 01/00 A3027 RMK A01 T00050002  RH  098%=      5-min Rain = 0
KAHS 080740Z 02008KT 00/00 A3027 RMK A01 T00040002  RH  098%=      5-min Rain = 0
KAHS 080741Z 03008KT 01/00 A3027 RMK A01 T00050002  RH  098%=      5-min Rain = 0
KAHS 080742Z 02007KT 00/00 A3026 RMK A01 T00040002  RH  098%=      5-min Rain = 0
KAHS 080743Z 02009KT 01/00 A3026 RMK A01 T00050002  RH  098%=      5-min Rain = 0
KAHS 080744Z 03009KT 00/00 A3026 RMK A01 T00040002  RH  098%=      5-min Rain = 0
KAHS 080745Z 03010KT 00/00 A3026 RMK A01 T00040001  RH  098%=      5-min Rain = 0
KAHS 080746Z 03009KT 00/00 A3026 RMK A01 T00040002  RH  098%=      5-min Rain = 0
KAHS 080747Z 03009KT 00/00 A3026 RMK A01 T00040001  RH  098%=      5-min Rain = 0
KAHS 080748Z 03009KT 00/00 A3026 RMK A01 T00040001  RH  098%=      5-min Rain = 0.01
KAHS 080749Z 03008KT 00/00 A3026 RMK A01 T00040002  RH  098%=      5-min Rain = 0
KAHS 080750Z 02009KT 00/00 A3026 RMK A01 T00040001  RH  098%=      5-min Rain = 0
KAHS 080751Z 03007KT 00/00 A3026 RMK A01 T00040001  RH  098%=      5-min Rain = 0
KAHS 080752Z 03008KT 00/00 A3026 RMK A01 T00040001  RH  098%=      5-min Rain = 0
KAHS 080753Z 03007KT 00/00 A3026 RMK A01 T00040001  RH  098%=      5-min Rain = 0
KAHS 080754Z 03008KT 00/00 A3026 RMK A01 T00040001  RH  098%=      5-min Rain = 0
KAHS 080755Z 03007KT 00/00 A3026 RMK A01 T00040001  RH  098%=      5-min Rain = 0
KAHS 080756Z 03008KT 00/00 A3026 RMK A01 T00040001  RH  098%=      5-min Rain = 0
KAHS 080757Z 03008KT 00/00 A3026 RMK A01 T00040001  RH  098%=      5-min Rain = 0
KAHS 080758Z 03008KT 00/00 A3026 RMK A01 T00040001  RH  098%=      5-min Rain = 0
KAHS 080759Z 03008KT 00/00 A3026 RMK A01 T00040001  RH  098%=      5-min Rain = 0
KAHS 080800Z 03007KT 00/00 A3027 RMK A01 T00040001  RH  098%=      5-min Rain = 0.01
KAHS 080801Z 04006KT 00/00 A3026 RMK A01 T00040001  RH  098%=      5-min Rain = 0
KAHS 080802Z 04005KT 00/00 A3026 RMK A01 T00040001  RH  098%=      5-min Rain = 0
KAHS 080803Z 04007KT 00/00 A3026 RMK A01 T00040001  RH  098%=      5-min Rain = 0
KAHS 080804Z 04006KT 00/00 A3026 RMK A01 T00040001  RH  098%=      5-min Rain = 0
KAHS 080805Z 03008KT 00/00 A3026 RMK A01 T00040001  RH  098%=      5-min Rain = 0
KAHS 080806Z 03008KT 00/00 A3026 RMK A01 T00040001  RH  098%=      5-min Rain = 0
KAHS 080807Z 03009KT 00/00 A3026 RMK A01 T00040001  RH  098%=      5-min Rain = 0
KAHS 080808Z 03009KT 00/00 A3026 RMK A01 T00040001  RH  098%=      5-min Rain = 0
KAHS 080809Z 03008KT 00/00 A3026 RMK A01 T00040001  RH  098%=      5-min Rain = 0
KAHS 080810Z 03009KT 00/00 A3026 RMK A01 T00040000  RH  098%=      5-min Rain = 0
KAHS 080811Z 03009KT 00/00 A3026 RMK A01 T00040001  RH  098%=      5-min Rain = 0.01
KAHS 080812Z 04009KT 00/00 A3026 RMK A01 T00040001  RH  098%=      5-min Rain = 0
KAHS 080813Z 03007KT 00/00 A3026 RMK A01 T00040001  RH  098%=      5-min Rain = 0
KAHS 080814Z 04009KT 00/00 A3026 RMK A01 T00040001  RH  098%=      5-min Rain = 0
KAHS 080815Z 04008KT 00/00 A3026 RMK A01 T00040001  RH  098%=      5-min Rain = 0
KAHS 080816Z 03009KT 00/00 A3026 RMK A01 T00040001  RH  098%=      5-min Rain = 0
KAHS 080817Z 03008KT 00/00 A3026 RMK A01 T00040001  RH  098%=      5-min Rain = 0
KAHS 080818Z 03009KT 00/00 A3026 RMK A01 T00040000  RH  098%=      5-min Rain = 0
KAHS 080819Z 03008KT 00/00 A3025 RMK A01 T00040000  RH  098%=      5-min Rain = 0.01
KAHS 080820Z 03007KT 00/00 A3025 RMK A01 T00040000  RH  098%=      5-min Rain = 0
KAHS 080821Z 03007KT 00/00 A3025 RMK A01 T00040001  RH  098%=      5-min Rain = 0
KAHS 080822Z 03010KT 00/00 A3025 RMK A01 T00040001  RH  098%=      5-min Rain = 0
KAHS 080823Z 02010KT 00/00 A3025 RMK A01 T00040001  RH  098%=      5-min Rain = 0
KAHS 080824Z 03010KT 00/00 A3025 RMK A01 T00040000  RH  098%=      5-min Rain = 0
KAHS 080825Z 02012KT 00/00 A3025 RMK A01 T000300-0  RH  098%=      5-min Rain = 0
KAHS 080826Z 03010KT 00/00 A3025 RMK A01 T000300-0  RH  098%=      5-min Rain = 0
KAHS 080827Z 03011KT 00/00 A3025 RMK A01 T00030000  RH  098%=      5-min Rain = 0
KAHS 080828Z 03011KT 00/00 A3025 RMK A01 T000300-0  RH  098%=      5-min Rain = 0
KAHS 080829Z 03009KT 00/00 A3025 RMK A01 T000300-0  RH  098%=      5-min Rain = 0
KAHS 080830Z 03007KT 00/00 A3025 RMK A01 T00030000  RH  098%=      5-min Rain = 0
KAHS 080831Z 03009KT 00/00 A3025 RMK A01 T00040001  RH  098%=      5-min Rain = 0
KAHS 080832Z 02008KT 00/00 A3025 RMK A01 T00040000  RH  098%=      5-min Rain = 0.01
KAHS 080833Z 03010KT 00/00 A3025 RMK A01 T00040001  RH  098%=      5-min Rain = 0
KAHS 080834Z 03009KT 00/00 A3025 RMK A01 T00040000  RH  098%=      5-min Rain = 0
KAHS 080835Z 02009KT 00/00 A3025 RMK A01 T00040001  RH  098%=      5-min Rain = 0
KAHS 080836Z 03010KT 00/00 A3025 RMK A01 T000300-0  RH  098%=      5-min Rain = 0
KAHS 080837Z 03009KT 00/00 A3026 RMK A01 T000300-0  RH  098%=      5-min Rain = 0
KAHS 080838Z 03009KT 00/00 A3026 RMK A01 T000300-0  RH  098%=      5-min Rain = 0
KAHS 080839Z 03009KT 00/00 A3026 RMK A01 T00030000  RH  098%=      5-min Rain = 0
KAHS 080840Z 03009KT 00/00 A3026 RMK A01 T00040000  RH  098%=      5-min Rain = 0
KAHS 080841Z 03009KT 00/00 A3025 RMK A01 T00040000  RH  098%=      5-min Rain = 0
KAHS 080842Z 02009KT 00/00 A3025 RMK A01 T00040000  RH  098%=      5-min Rain = 0
KAHS 080843Z 03008KT 00/00 A3025 RMK A01 T00040000  RH  098%=      5-min Rain = 0
KAHS 080844Z 03009KT 00/00 A3025 RMK A01 T00040000  RH  098%=      5-min Rain = 0
KAHS 080845Z 03009KT 00/00 A3025 RMK A01 T00040000  RH  098%=      5-min Rain = 0
KAHS 080846Z 02008KT 00/00 A3025 RMK A01 T00040000  RH  098%=      5-min Rain = 0
KAHS 080847Z 03010KT 00/00 A3025 RMK A01 T00040000  RH  098%=      5-min Rain = 0
KAHS 080848Z 03010KT 00/00 A3025 RMK A01 T00040000  RH  098%=      5-min Rain = 0
KAHS 080849Z 02008KT 00/00 A3025 RMK A01 T00040000  RH  098%=      5-min Rain = 0
KAHS 080850Z 03008KT 00/00 A3025 RMK A01 T00040000  RH  098%=      5-min Rain = 0
KAHS 080851Z 03010KT 00/00 A3025 RMK A01 T00040000  RH  098%=      5-min Rain = 0
KAHS 080852Z 03011KT 00/00 A3025 RMK A01 T00040001  RH  098%=      5-min Rain = 0
KAHS 080853Z 03011KT 00/00 A3025 RMK A01 T00040001  RH  098%=      5-min Rain = 0
KAHS 080854Z 03010KT 00/00 A3025 RMK A01 T00040001  RH  098%=      5-min Rain = 0
KAHS 080855Z 03010KT 00/00 A3025 RMK A01 T00040000  RH  098%=      5-min Rain = 0
KAHS 080856Z 03010KT 00/00 A3025 RMK A01 T00040001  RH  098%=      5-min Rain = 0
KAHS 080857Z 04009KT 00/00 A3025 RMK A01 T00040000  RH  098%=      5-min Rain = 0
KAHS 080858Z 04010KT 00/00 A3025 RMK A01 T00040001  RH  098%=      5-min Rain = 0
KAHS 080859Z 04008KT 00/00 A3025 RMK A01 T00040000  RH  098%=      5-min Rain = 0
KAHS 080900Z 03009KT 00/00 A3025 RMK A01 T00040001  RH  098%=      5-min Rain = 0
KAHS 080901Z 04008KT 00/00 A3025 RMK A01 T00040001  RH  098%=      5-min Rain = 0
KAHS 080902Z 03009KT 00/00 A3025 RMK A01 T00040000  RH  098%=      5-min Rain = 0
KAHS 080903Z 03008KT 00/00 A3025 RMK A01 T00040001  RH  098%=      5-min Rain = 0
KAHS 080904Z 03010KT 00/00 A3025 RMK A01 T000300-0  RH  098%=      5-min Rain = 0
KAHS 080905Z 02008KT 00/00 A3025 RMK A01 T00040000  RH  098%=      5-min Rain = 0
KAHS 080906Z 03008KT 00/00 A3025 RMK A01 T00040000  RH  098%=      5-min Rain = 0
KAHS 080907Z 03009KT 00/00 A3025 RMK A01 T00040000  RH  098%=      5-min Rain = 0
KAHS 080908Z 03009KT 00/00 A3025 RMK A01 T00040001  RH  098%=      5-min Rain = 0.01
KAHS 080909Z 03010KT 00/00 A3025 RMK A01 T00040001  RH  098%=      5-min Rain = 0
KAHS 080910Z 03010KT 00/00 A3025 RMK A01 T000300-0  RH  098%=      5-min Rain = 0
KAHS 080911Z 02006KT 00/00 A3025 RMK A01 T00030000  RH  098%=      5-min Rain = 0
KAHS 080912Z 04006KT 00/00 A3025 RMK A01 T00040000  RH  098%=      5-min Rain = 0
KAHS 080913Z 03008KT 00/00 A3025 RMK A01 T00040000  RH  098%=      5-min Rain = 0
KAHS 080914Z 03009KT 00/00 A3025 RMK A01 T00040000  RH  098%=      5-min Rain = 0
KAHS 080915Z 02011KT 00/00 A3025 RMK A01 T000300-0  RH  098%=      5-min Rain = 0
KAHS 080916Z 03010KT 00/00 A3025 RMK A01 T000300-0  RH  098%=      5-min Rain = 0
KAHS 080917Z 04010KT 00/00 A3025 RMK A01 T000300-0  RH  098%=      5-min Rain = 0
KAHS 080918Z 03009KT 00/00 A3025 RMK A01 T000300-0  RH  098%=      5-min Rain = 0
KAHS 080919Z 04008KT 00/00 A3025 RMK A01 T000300-0  RH  098%=      5-min Rain = 0
KAHS 080920Z 03008KT 00/00 A3025 RMK A01 T00040000  RH  098%=      5-min Rain = 0
KAHS 080921Z 04008KT 00/00 A3025 RMK A01 T00040000  RH  098%=      5-min Rain = 0
KAHS 080922Z 03008KT 00/00 A3025 RMK A01 T00040000  RH  098%=      5-min Rain = 0
KAHS 080923Z 03011KT 00/00 A3025 RMK A01 T00040000  RH  098%=      5-min Rain = 0
KAHS 080924Z 04009KT 00/00 A3025 RMK A01 T000300-0  RH  098%=      5-min Rain = 0
KAHS 080925Z 03007KT 00/00 A3025 RMK A01 T00040000  RH  098%=      5-min Rain = 0
KAHS 080926Z 03010KT 00/00 A3025 RMK A01 T00040000  RH  098%=      5-min Rain = 0
KAHS 080927Z 03008KT 00/00 A3025 RMK A01 T000300-0  RH  098%=      5-min Rain = 0
KAHS 080928Z 03008KT 00/00 A3025 RMK A01 T00040000  RH  098%=      5-min Rain = 0
KAHS 080929Z 03007KT 00/00 A3025 RMK A01 T00040000  RH  098%=      5-min Rain = 0
KAHS 080930Z 03007KT 00/00 A3025 RMK A01 T00040000  RH  098%=      5-min Rain = 0
KAHS 080931Z 03009KT 00/00 A3025 RMK A01 T00040000  RH  098%=      5-min Rain = 0
KAHS 080932Z 03007KT 00/00 A3025 RMK A01 T000300-0  RH  098%=      5-min Rain = 0
KAHS 080933Z 03007KT 00/00 A3025 RMK A01 T00030000  RH  098%=      5-min Rain = 0
KAHS 080934Z 03007KT 00/00 A3025 RMK A01 T000300-0  RH  098%=      5-min Rain = 0
KAHS 080935Z 04007KT 00/00 A3025 RMK A01 T00040000  RH  098%=      5-min Rain = 0
KAHS 080936Z 04007KT 00/00 A3025 RMK A01 T00040000  RH  098%=      5-min Rain = 0
KAHS 080937Z 03007KT 00/00 A3025 RMK A01 T00040000  RH  098%=      5-min Rain = 0
KAHS 080938Z 04008KT 00/00 A3025 RMK A01 T00040001  RH  098%=      5-min Rain = 0
KAHS 080939Z 02007KT 00/00 A3025 RMK A01 T00040001  RH  098%=      5-min Rain = 0
KAHS 080940Z 03008KT 00/00 A3025 RMK A01 T00040001  RH  098%=      5-min Rain = 0
KAHS 080941Z 03008KT 00/00 A3025 RMK A01 T00040001  RH  098%=      5-min Rain = 0
KAHS 080942Z 03007KT 00/00 A3025 RMK A01 T00040001  RH  098%=      5-min Rain = 0.01
KAHS 080943Z 03007KT 00/00 A3025 RMK A01 T00040001  RH  098%=      5-min Rain = 0
KAHS 080944Z 03009KT 00/00 A3025 RMK A01 T00040001  RH  098%=      5-min Rain = 0
KAHS 080945Z 03009KT 00/00 A3025 RMK A01 T00040001  RH  098%=      5-min Rain = 0
KAHS 080946Z 03009KT 00/00 A3025 RMK A01 T00040001  RH  098%=      5-min Rain = 0
KAHS 080947Z 03007KT 00/00 A3025 RMK A01 T00040001  RH  098%=      5-min Rain = 0
KAHS 080948Z 02007KT 00/00 A3025 RMK A01 T00040001  RH  098%=      5-min Rain = 0
KAHS 080949Z 03009KT 00/00 A3025 RMK A01 T00040001  RH  098%=      5-min Rain = 0
KAHS 080950Z 03009KT 00/00 A3025 RMK A01 T00040001  RH  098%=      5-min Rain = 0
KAHS 080951Z 02008KT 00/00 A3025 RMK A01 T00040001  RH  098%=      5-min Rain = 0
KAHS 080952Z 03010KT 00/00 A3025 RMK A01 T00040001  RH  098%=      5-min Rain = 0
KAHS 080953Z 03010KT 00/00 A3025 RMK A01 T00040001  RH  098%=      5-min Rain = 0
KAHS 080954Z 03008KT 00/00 A3025 RMK A01 T00040001  RH  098%=      5-min Rain = 0
KAHS 080955Z 03007KT 00/00 A3025 RMK A01 T00040001  RH  098%=      5-min Rain = 0
KAHS 080956Z 03007KT 00/00 A3025 RMK A01 T00040001  RH  098%=      5-min Rain = 0
KAHS 080957Z 03007KT 00/00 A3025 RMK A01 T00040001  RH  098%=      5-min Rain = 0
KAHS 080958Z 03007KT 00/00 A3025 RMK A01 T00040001  RH  098%=      5-min Rain = 0
KAHS 080959Z 04007KT 00/00 A3025 RMK A01 T00040001  RH  098%=      5-min Rain = 0
KAHS 081000Z 03008KT 00/00 A3025 RMK A01 T00040001  RH  098%=      5-min Rain = 0
KAHS 081001Z 02006KT 00/00 A3025 RMK A01 T00040001  RH  098%=      5-min Rain = 0
KAHS 081002Z 03005KT 00/00 A3025 RMK A01 T00040001  RH  098%=      5-min Rain = 0
KAHS 081003Z 03005KT 00/00 A3025 RMK A01 T00040001  RH  098%=      5-min Rain = 0
KAHS 081004Z 03006KT 00/00 A3025 RMK A01 T00040001  RH  098%=      5-min Rain = 0
KAHS 081005Z 03007KT 00/00 A3025 RMK A01 T00040001  RH  098%=      5-min Rain = 0
KAHS 081006Z 03007KT 00/00 A3025 RMK A01 T00040001  RH  098%=      5-min Rain = 0
KAHS 081007Z 04006KT 00/00 A3025 RMK A01 T00040001  RH  098%=      5-min Rain = 0
KAHS 081008Z 03006KT 00/00 A3025 RMK A01 T00040001  RH  098%=      5-min Rain = 0
KAHS 081009Z 03004KT 00/00 A3025 RMK A01 T00040001  RH  098%=      5-min Rain = 0
KAHS 081010Z 03005KT 00/00 A3025 RMK A01 T00040001  RH  098%=      5-min Rain = 0
KAHS 081011Z 04006KT 00/00 A3025 RMK A01 T00040001  RH  098%=      5-min Rain = 0
KAHS 081012Z 03008KT 00/00 A3025 RMK A01 T00040001  RH  098%=      5-min Rain = 0.01
KAHS 081013Z 03010KT 00/00 A3025 RMK A01 T00040001  RH  098%=      5-min Rain = 0
KAHS 081014Z 03011KT 00/00 A3025 RMK A01 T00030000  RH  098%=      5-min Rain = 0
KAHS 081015Z 03011KT 00/00 A3025 RMK A01 T00030000  RH  098%=      5-min Rain = 0
KAHS 081016Z 03009KT 00/00 A3025 RMK A01 T00030000  RH  098%=      5-min Rain = 0
KAHS 081017Z 03010KT 00/00 A3025 RMK A01 T00030000  RH  098%=      5-min Rain = 0
KAHS 081018Z 03009KT 00/00 A3025 RMK A01 T00030000  RH  098%=      5-min Rain = 0
KAHS 081019Z 03010KT 00/00 A3025 RMK A01 T000300-0  RH  098%=      5-min Rain = 0
KAHS 081020Z 02009KT 00/00 A3025 RMK A01 T000300-0  RH  098%=      5-min Rain = 0
KAHS 081021Z 02007KT 00/00 A3025 RMK A01 T000300-0  RH  098%=      5-min Rain = 0
KAHS 081022Z 02009KT 00/M00 A3025 RMK A01 T00031001  RH  098%=      5-min Rain = 0
KAHS 081023Z 02009KT 00/M00 A3025 RMK A01 T00021001  RH  098%=      5-min Rain = 0
KAHS 081024Z 03010KT 00/M00 A3025 RMK A01 T00021001  RH  098%=      5-min Rain = 0.01
KAHS 081025Z 03010KT 00/M00 A3025 RMK A01 T00021001  RH  098%=      5-min Rain = 0
KAHS 081026Z 03009KT 00/M00 A3025 RMK A01 T00021001  RH  098%=      5-min Rain = 0
KAHS 081027Z 03008KT 00/M00 A3025 RMK A01 T00021001  RH  098%=      5-min Rain = 0
KAHS 081028Z 03008KT 00/M00 A3025 RMK A01 T00021002  RH  098%=      5-min Rain = 0
KAHS 081029Z 03009KT 00/M00 A3025 RMK A01 T00021002  RH  098%=      5-min Rain = 0
KAHS 081030Z 02009KT 00/M00 A3025 RMK A01 T00021002  RH  098%=      5-min Rain = 0
KAHS 081031Z 03011KT 00/M00 A3025 RMK A01 T00021002  RH  098%=      5-min Rain = 0
KAHS 081032Z 03010KT 00/M00 A3024 RMK A01 T00011002  RH  098%=      5-min Rain = 0
KAHS 081033Z 03009KT 00/M00 A3024 RMK A01 T00011002  RH  098%=      5-min Rain = 0
KAHS 081034Z 02011KT 00/M00 A3024 RMK A01 T00011003  RH  098%=      5-min Rain = 0
KAHS 081035Z 02011KT 00/00 A3024 RMK A01 T000000-3  RH  097%=      5-min Rain = 0
KAHS 081036Z 02010KT 00/00 A3024 RMK A01 T000000-3  RH  097%=      5-min Rain = 0
KAHS 081037Z 03012KT 00/00 A3024 RMK A01 T000000-3  RH  097%=      5-min Rain = 0
KAHS 081038Z 03013KT 00/00 A3024 RMK A01 T000000-4  RH  097%=      5-min Rain = 0
KAHS 081039Z 02013KT 00/00 A3024 RMK A01 T00-000-4  RH  097%=      5-min Rain = 0
KAHS 081040Z 02011KT 00/00 A3024 RMK A01 T00-000-4  RH  097%=      5-min Rain = 0
KAHS 081041Z 03010KT 00/00 A3024 RMK A01 T00-000-4  RH  097%=      5-min Rain = 0
KAHS 081042Z 03009KT 00/00 A3024 RMK A01 T00-000-4  RH  097%=      5-min Rain = 0
KAHS 081043Z 03011KT 00/00 A3024 RMK A01 T00-000-4  RH  097%=      5-min Rain = 0
KAHS 081044Z 02012KT 00/00 A3024 RMK A01 T00-000-4  RH  097%=      5-min Rain = 0
KAHS 081045Z 03012KT 00/00 A3024 RMK A01 T00-000-4  RH  097%=      5-min Rain = 0
KAHS 081046Z 03010KT 00/00 A3024 RMK A01 T00-000-4  RH  097%=      5-min Rain = 0
KAHS 081047Z 03009KT 00/00 A3024 RMK A01 T00-000-4  RH  097%=      5-min Rain = 0
KAHS 081048Z 03008KT 00/00 A3024 RMK A01 T00-000-4  RH  097%=      5-min Rain = 0
KAHS 081049Z 03008KT 00/00 A3024 RMK A01 T00-000-4  RH  097%=      5-min Rain = 0
KAHS 081050Z 03008KT 00/00 A3024 RMK A01 T00-000-4  RH  097%=      5-min Rain = 0
KAHS 081051Z 03009KT 00/00 A3024 RMK A01 T00-000-4  RH  097%=      5-min Rain = 0
KAHS 081052Z 04009KT M00/M00 A3024 RMK A01 T10011004  RH  097%=      5-min Rain = 0
KAHS 081053Z 04007KT M00/M01 A3024 RMK A01 T10011005  RH  097%=      5-min Rain = 0
KAHS 081054Z 03011KT M00/M01 A3024 RMK A01 T10011005  RH  097%=      5-min Rain = 0
KAHS 081055Z 04009KT M00/M01 A3024 RMK A01 T10011005  RH  097%=      5-min Rain = 0
KAHS 081056Z 03009KT M00/M01 A3024 RMK A01 T10011005  RH  097%=      5-min Rain = 0
KAHS 081057Z 04009KT M00/M01 A3024 RMK A01 T10011005  RH  097%=      5-min Rain = 0
KAHS 081058Z 03009KT M00/M00 A3024 RMK A01 T10011004  RH  097%=      5-min Rain = 0
KAHS 081059Z 04008KT M00/M01 A3024 RMK A01 T10011005  RH  097%=      5-min Rain = 0
KAHS 081100Z 04008KT M00/M01 A3024 RMK A01 T10011005  RH  097%=      5-min Rain = 0
KAHS 081101Z 04008KT M00/M01 A3025 RMK A01 T10011005  RH  097%=      5-min Rain = 0
KAHS 081102Z 03007KT M00/M01 A3025 RMK A01 T10011005  RH  097%=      5-min Rain = 0
KAHS 081103Z 03007KT M00/M01 A3025 RMK A01 T10011005  RH  097%=      5-min Rain = 0
KAHS 081104Z 04006KT M00/M01 A3025 RMK A01 T10011005  RH  097%=      5-min Rain = 0
KAHS 081105Z 04007KT M00/M01 A3025 RMK A01 T10011005  RH  097%=      5-min Rain = 0
KAHS 081106Z 03006KT M00/M01 A3025 RMK A01 T10021005  RH  097%=      5-min Rain = 0
KAHS 081107Z 04007KT M00/M01 A3025 RMK A01 T10021005  RH  097%=      5-min Rain = 0
KAHS 081108Z 04006KT M00/M01 A3025 RMK A01 T10011005  RH  097%=      5-min Rain = 0
KAHS 081109Z 04005KT M00/M01 A3025 RMK A01 T10021005  RH  097%=      5-min Rain = 0
KAHS 081110Z 03005KT M00/M01 A3025 RMK A01 T10011005  RH  097%=      5-min Rain = 0
KAHS 081111Z 03006KT M00/M01 A3025 RMK A01 T10011005  RH  097%=      5-min Rain = 0
KAHS 081112Z 04007KT M00/M01 A3025 RMK A01 T10011005  RH  098%=      5-min Rain = 0
KAHS 081113Z 03007KT M00/M01 A3025 RMK A01 T10021006  RH  098%=      5-min Rain = 0
KAHS 081114Z 03006KT M00/M01 A3024 RMK A01 T10021006  RH  098%=      5-min Rain = 0
KAHS 081115Z 03006KT M00/M01 A3024 RMK A01 T10021006  RH  098%=      5-min Rain = 0
KAHS 081116Z 03006KT M00/M01 A3024 RMK A01 T10021005  RH  098%=      5-min Rain = 0
KAHS 081117Z 03006KT M00/M01 A3024 RMK A01 T10021005  RH  098%=      5-min Rain = 0
KAHS 081118Z 03006KT M00/M01 A3024 RMK A01 T10021005  RH  098%=      5-min Rain = 0
KAHS 081119Z 03006KT M00/M01 A3024 RMK A01 T10021005  RH  098%=      5-min Rain = 0
KAHS 081120Z 03009KT M00/M01 A3024 RMK A01 T10021005  RH  098%=      5-min Rain = 0
KAHS 081121Z 03007KT M00/M01 A3024 RMK A01 T10021005  RH  098%=      5-min Rain = 0
KAHS 081122Z 03008KT M00/M01 A3025 RMK A01 T10031006  RH  098%=      5-min Rain = 0
KAHS 081123Z 03009KT M00/M01 A3025 RMK A01 T10031006  RH  098%=      5-min Rain = 0
KAHS 081124Z 04010KT M00/M01 A3025 RMK A01 T10031006  RH  098%=      5-min Rain = 0
KAHS 081125Z 03008KT M00/M01 A3025 RMK A01 T10031006  RH  098%=      5-min Rain = 0
KAHS 081126Z 03007KT M00/M01 A3025 RMK A01 T10031006  RH  098%=      5-min Rain = 0
KAHS 081127Z 02008KT M00/M01 A3025 RMK A01 T10031006  RH  098%=      5-min Rain = 0
KAHS 081128Z 02007KT M00/M01 A3025 RMK A01 T10031006  RH  098%=      5-min Rain = 0
KAHS 081129Z 03009KT M00/M01 A3025 RMK A01 T10031006  RH  098%=      5-min Rain = 0
KAHS 081130Z 03008KT M00/M01 A3025 RMK A01 T10031006  RH  098%=      5-min Rain = 0
KAHS 081131Z 03008KT M00/M01 A3025 RMK A01 T10031006  RH  098%=      5-min Rain = 0
KAHS 081132Z 02005KT M00/M01 A3025 RMK A01 T10031006  RH  098%=      5-min Rain = 0
KAHS 081133Z 02007KT M00/M01 A3025 RMK A01 T10031005  RH  098%=      5-min Rain = 0
KAHS 081134Z 03006KT M00/M01 A3026 RMK A01 T10031006  RH  098%=      5-min Rain = 0
KAHS 081135Z 03008KT M00/M01 A3026 RMK A01 T10041006  RH  098%=      5-min Rain = 0
KAHS 081136Z 02007KT M00/M01 A3026 RMK A01 T10031006  RH  098%=      5-min Rain = 0
KAHS 081137Z 03006KT M00/M01 A3026 RMK A01 T10041006  RH  098%=      5-min Rain = 0
KAHS 081138Z 03007KT M00/M01 A3026 RMK A01 T10041006  RH  098%=      5-min Rain = 0
KAHS 081139Z 03009KT M00/M01 A3026 RMK A01 T10031006  RH  098%=      5-min Rain = 0
KAHS 081140Z 03008KT M00/M01 A3026 RMK A01 T10041006  RH  098%=      5-min Rain = 0
KAHS 081141Z 02008KT M00/M01 A3026 RMK A01 T10041006  RH  098%=      5-min Rain = 0
KAHS 081142Z 02007KT M00/M01 A3026 RMK A01 T10041007  RH  098%=      5-min Rain = 0
KAHS 081143Z 03007KT M00/M01 A3026 RMK A01 T10041007  RH  098%=      5-min Rain = 0
KAHS 081144Z 03007KT M00/M01 A3026 RMK A01 T10041006  RH  098%=      5-min Rain = 0
KAHS 081145Z 03008KT M00/M01 A3026 RMK A01 T10041006  RH  098%=      5-min Rain = 0
KAHS 081146Z 03008KT M00/M01 A3026 RMK A01 T10041006  RH  098%=      5-min Rain = 0
KAHS 081147Z 03008KT M00/M01 A3026 RMK A01 T10041006  RH  098%=      5-min Rain = 0
KAHS 081148Z 03007KT M00/M01 A3026 RMK A01 T10041006  RH  098%=      5-min Rain = 0
KAHS 081149Z 03007KT M00/M01 A3026 RMK A01 T10041006  RH  098%=      5-min Rain = 0
KAHS 081150Z 03006KT M00/M01 A3026 RMK A01 T10041006  RH  098%=      5-min Rain = 0
KAHS 081151Z 03008KT M00/M01 A3026 RMK A01 T10041006  RH  098%=      5-min Rain = 0
KAHS 081152Z 03008KT M00/M01 A3026 RMK A01 T10041006  RH  098%=      5-min Rain = 0
KAHS 081153Z 03007KT M00/M01 A3027 RMK A01 T10041006  RH  098%=      5-min Rain = 0
KAHS 081154Z 03008KT M00/M01 A3027 RMK A01 T10041006  RH  098%=      5-min Rain = 0
KAHS 081155Z 03007KT M00/M01 A3027 RMK A01 T10041006  RH  098%=      5-min Rain = 0
KAHS 081156Z 03008KT M00/M01 A3026 RMK A01 T10041006  RH  099%=      5-min Rain = 0
KAHS 081157Z 03009KT M01/M01 A3026 RMK A01 T10051007  RH  098%=      5-min Rain = 0
KAHS 081158Z 03007KT M01/M01 A3026 RMK A01 T10051007  RH  099%=      5-min Rain = 0
KAHS 081159Z 03010KT M01/M01 A3026 RMK A01 T10051007  RH  099%=      5-min Rain = 0
KAHS 081200Z 04009KT M01/M01 A3026 RMK A01 T10051007  RH  099%=      5-min Rain = 0
KAHS 081201Z 04006KT M01/M01 A3026 RMK A01 T10051007  RH  098%=      5-min Rain = 0
KAHS 081202Z 04006KT M01/M01 A3026 RMK A01 T10051007  RH  098%=      5-min Rain = 0
KAHS 081203Z 04007KT M01/M01 A3026 RMK A01 T10051007  RH  099%=      5-min Rain = 0
KAHS 081204Z 04007KT M01/M01 A3026 RMK A01 T10051007  RH  099%=      5-min Rain = 0
KAHS 081205Z 04007KT M01/M01 A3026 RMK A01 T10051007  RH  099%=      5-min Rain = 0
KAHS 081206Z 04006KT M01/M01 A3026 RMK A01 T10051007  RH  099%=      5-min Rain = 0
KAHS 081207Z 04005KT M01/M01 A3026 RMK A01 T10051007  RH  099%=      5-min Rain = 0
KAHS 081208Z 04006KT M01/M01 A3026 RMK A01 T10051007  RH  099%=      5-min Rain = 0
KAHS 081209Z 04005KT M01/M01 A3026 RMK A01 T10051007  RH  099%=      5-min Rain = 0
KAHS 081210Z 03005KT M01/M01 A3026 RMK A01 T10051007  RH  099%=      5-min Rain = 0
KAHS 081211Z 04005KT M01/M01 A3026 RMK A01 T10051007  RH  099%=      5-min Rain = 0
KAHS 081212Z 04005KT M01/M01 A3026 RMK A01 T10051007  RH  099%=      5-min Rain = 0
KAHS 081213Z 04004KT M01/M01 A3027 RMK A01 T10051007  RH  099%=      5-min Rain = 0
KAHS 081214Z 04005KT M01/M01 A3027 RMK A01 T10051007  RH  099%=      5-min Rain = 0
KAHS 081215Z 04005KT M01/M01 A3027 RMK A01 T10051007  RH  099%=      5-min Rain = 0
KAHS 081216Z 03004KT M01/M01 A3027 RMK A01 T10051007  RH  099%=      5-min Rain = 0
KAHS 081217Z 03006KT M01/M01 A3027 RMK A01 T10051007  RH  099%=      5-min Rain = 0
KAHS 081218Z 03006KT M01/M01 A3027 RMK A01 T10051007  RH  099%=      5-min Rain = 0
KAHS 081219Z 03006KT M01/M01 A3027 RMK A01 T10051007  RH  099%=      5-min Rain = 0
KAHS 081220Z 03007KT M01/M01 A3027 RMK A01 T10051007  RH  099%=      5-min Rain = 0
KAHS 081221Z 03006KT M01/M01 A3027 RMK A01 T10051007  RH  099%=      5-min Rain = 0
KAHS 081222Z 04006KT M01/M01 A3027 RMK A01 T10051007  RH  099%=      5-min Rain = 0
KAHS 081223Z 03007KT M01/M01 A3027 RMK A01 T10051007  RH  099%=      5-min Rain = 0
KAHS 081224Z 04006KT M01/M01 A3027 RMK A01 T10051007  RH  099%=      5-min Rain = 0
KAHS 081225Z 03007KT M01/M01 A3027 RMK A01 T10051007  RH  099%=      5-min Rain = 0
KAHS 081226Z 03008KT M01/M01 A3027 RMK A01 T10051007  RH  099%=      5-min Rain = 0
KAHS 081227Z 02009KT M01/M01 A3027 RMK A01 T10051007  RH  099%=      5-min Rain = 0
KAHS 081228Z 04006KT M01/M01 A3027 RMK A01 T10051007  RH  099%=      5-min Rain = 0
KAHS 081229Z 04009KT M01/M01 A3027 RMK A01 T10051007  RH  099%=      5-min Rain = 0
KAHS 081230Z 03008KT M01/M01 A3027 RMK A01 T10051007  RH  099%=      5-min Rain = 0
KAHS 081231Z 04007KT M01/M01 A3027 RMK A01 T10051007  RH  099%=      5-min Rain = 0
KAHS 081232Z 03007KT M01/M01 A3027 RMK A01 T10051007  RH  099%=      5-min Rain = 0
KAHS 081233Z 03007KT M01/M01 A3027 RMK A01 T10051007  RH  099%=      5-min Rain = 0
KAHS 081234Z 03007KT M01/M01 A3027 RMK A01 T10051007  RH  099%=      5-min Rain = 0
KAHS 081235Z 03007KT M01/M01 A3027 RMK A01 T10051007  RH  099%=      5-min Rain = 0
KAHS 081236Z 03006KT M01/M01 A3027 RMK A01 T10051007  RH  099%=      5-min Rain = 0
KAHS 081237Z 02008KT M01/M01 A3027 RMK A01 T10051007  RH  099%=      5-min Rain = 0
KAHS 081238Z 02008KT M01/M01 A3027 RMK A01 T10051007  RH  099%=      5-min Rain = 0
KAHS 081239Z 03007KT M01/M01 A3027 RMK A01 T10051007  RH  099%=      5-min Rain = 0
KAHS 081240Z 02006KT M01/M01 A3027 RMK A01 T10051007  RH  099%=      5-min Rain = 0
KAHS 081241Z 03007KT M01/M01 A3027 RMK A01 T10051007  RH  099%=      5-min Rain = 0
KAHS 081242Z 02006KT M01/M01 A3027 RMK A01 T10051007  RH  099%=      5-min Rain = 0
KAHS 081243Z 02005KT M01/M01 A3028 RMK A01 T10051007  RH  099%=      5-min Rain = 0
KAHS 081244Z 02006KT M01/M01 A3028 RMK A01 T10051007  RH  099%=      5-min Rain = 0
KAHS 081245Z 02008KT M01/M01 A3028 RMK A01 T10051007  RH  099%=      5-min Rain = 0
KAHS 081246Z 03008KT M01/M01 A3028 RMK A01 T10051007  RH  099%=      5-min Rain = 0
KAHS 081247Z 02007KT M01/M01 A3028 RMK A01 T10051007  RH  099%=      5-min Rain = 0
KAHS 081248Z 03008KT M01/M01 A3028 RMK A01 T10051007  RH  099%=      5-min Rain = 0
KAHS 081249Z 02009KT M01/M01 A3028 RMK A01 T10051007  RH  099%=      5-min Rain = 0
KAHS 081250Z 03009KT M01/M01 A3028 RMK A01 T10051007  RH  099%=      5-min Rain = 0
KAHS 081251Z 03008KT M01/M01 A3028 RMK A01 T10051007  RH  099%=      5-min Rain = 0
KAHS 081252Z 02009KT M01/M01 A3028 RMK A01 T10051007  RH  099%=      5-min Rain = 0
KAHS 081253Z 02010KT M01/M01 A3028 RMK A01 T10061008  RH  099%=      5-min Rain = 0
KAHS 081254Z 02008KT M01/M01 A3028 RMK A01 T10061008  RH  099%=      5-min Rain = 0
KAHS 081255Z 03008KT M01/M01 A3028 RMK A01 T10061008  RH  099%=      5-min Rain = 0
KAHS 081256Z 03008KT M01/M01 A3028 RMK A01 T10061008  RH  099%=      5-min Rain = 0
KAHS 081257Z 03007KT M01/M01 A3028 RMK A01 T10061008  RH  099%=      5-min Rain = 0
KAHS 081258Z 03008KT M01/M01 A3028 RMK A01 T10061008  RH  099%=      5-min Rain = 0
KAHS 081259Z 02009KT M01/M01 A3028 RMK A01 T10061008  RH  099%=      5-min Rain = 0
KAHS 081300Z 03006KT M01/M01 A3028 RMK A01 T10061008  RH  099%=      5-min Rain = 0
KAHS 081301Z 03007KT M01/M01 A3028 RMK A01 T10061008  RH  099%=      5-min Rain = 0
KAHS 081302Z 03006KT M01/M01 A3028 RMK A01 T10061008  RH  099%=      5-min Rain = 0
KAHS 081303Z 03007KT M01/M01 A3028 RMK A01 T10061008  RH  099%=      5-min Rain = 0
KAHS 081304Z 03005KT M01/M01 A3028 RMK A01 T10061008  RH  099%=      5-min Rain = 0
KAHS 081305Z 03006KT M01/M01 A3028 RMK A01 T10061008  RH  099%=      5-min Rain = 0
KAHS 081306Z 03007KT M01/M01 A3028 RMK A01 T10061008  RH  099%=      5-min Rain = 0
KAHS 081307Z 03005KT M01/M01 A3028 RMK A01 T10061008  RH  099%=      5-min Rain = 0
KAHS 081308Z 03005KT M01/M01 A3028 RMK A01 T10061008  RH  099%=      5-min Rain = 0
KAHS 081309Z 03006KT M01/M01 A3028 RMK A01 T10061008  RH  099%=      5-min Rain = 0
KAHS 081310Z 03005KT M01/M01 A3028 RMK A01 T10061008  RH  099%=      5-min Rain = 0
KAHS 081311Z 03005KT M01/M01 A3028 RMK A01 T10061008  RH  099%=      5-min Rain = 0
KAHS 081312Z 02005KT M01/M01 A3028 RMK A01 T10061008  RH  099%=      5-min Rain = 0
KAHS 081313Z 03005KT M01/M01 A3028 RMK A01 T10061008  RH  099%=      5-min Rain = 0
KAHS 081314Z 03004KT M01/M01 A3028 RMK A01 T10061008  RH  099%=      5-min Rain = 0
KAHS 081315Z 02006KT M01/M01 A3028 RMK A01 T10061007  RH  099%=      5-min Rain = 0
KAHS 081316Z 02005KT M01/M01 A3028 RMK A01 T10061007  RH  099%=      5-min Rain = 0
KAHS 081317Z 02006KT M01/M01 A3028 RMK A01 T10061007  RH  099%=      5-min Rain = 0
KAHS 081318Z 03007KT M01/M01 A3028 RMK A01 T10061007  RH  099%=      5-min Rain = 0
KAHS 081319Z 03007KT M01/M01 A3028 RMK A01 T10061008  RH  099%=      5-min Rain = 0
KAHS 081320Z 03007KT M01/M01 A3029 RMK A01 T10061007  RH  099%=      5-min Rain = 0
KAHS 081321Z 03007KT M01/M01 A3029 RMK A01 T10061007  RH  099%=      5-min Rain = 0
KAHS 081322Z 02006KT M01/M01 A3029 RMK A01 T10061007  RH  099%=      5-min Rain = 0
KAHS 081323Z 03009KT M01/M01 A3029 RMK A01 T10061007  RH  099%=      5-min Rain = 0
KAHS 081324Z 03007KT M01/M01 A3029 RMK A01 T10061007  RH  099%=      5-min Rain = 0
KAHS 081325Z 02007KT M01/M01 A3029 RMK A01 T10061007  RH  099%=      5-min Rain = 0
KAHS 081326Z 03006KT M01/M01 A3029 RMK A01 T10061007  RH  099%=      5-min Rain = 0
KAHS 081327Z 02006KT M01/M01 A3029 RMK A01 T10061007  RH  099%=      5-min Rain = 0
KAHS 081328Z 02005KT M01/M01 A3029 RMK A01 T10061007  RH  099%=      5-min Rain = 0
KAHS 081329Z 02004KT M01/M01 A3029 RMK A01 T10061007  RH  099%=      5-min Rain = 0
KAHS 081330Z 02006KT M01/M01 A3029 RMK A01 T10061007  RH  099%=      5-min Rain = 0
KAHS 081331Z 02005KT M01/M01 A3029 RMK A01 T10061007  RH  099%=      5-min Rain = 0
KAHS 081332Z 02005KT M01/M01 A3029 RMK A01 T10061007  RH  099%=      5-min Rain = 0
KAHS 081333Z 02005KT M01/M01 A3029 RMK A01 T10061007  RH  099%=      5-min Rain = 0
KAHS 081334Z 02006KT M01/M01 A3029 RMK A01 T10061007  RH  099%=      5-min Rain = 0
KAHS 081335Z 02006KT M01/M01 A3029 RMK A01 T10061007  RH  099%=      5-min Rain = 0
KAHS 081336Z 01004KT M01/M01 A3029 RMK A01 T10061007  RH  099%=      5-min Rain = 0
KAHS 081337Z 02005KT M01/M01 A3029 RMK A01 T10061007  RH  099%=      5-min Rain = 0
KAHS 081338Z 02007KT M01/M01 A3029 RMK A01 T10061007  RH  099%=      5-min Rain = 0
KAHS 081339Z 01006KT M01/M01 A3029 RMK A01 T10061007  RH  099%=      5-min Rain = 0
KAHS 081340Z 02006KT M01/M01 A303 RMK A01 T10061007  RH  099%=      5-min Rain = 0
KAHS 081341Z 03007KT M01/M01 A303 RMK A01 T10061007  RH  099%=      5-min Rain = 0
KAHS 081342Z 03007KT M01/M01 A303 RMK A01 T10061007  RH  099%=      5-min Rain = 0
KAHS 081343Z 02006KT M01/M01 A303 RMK A01 T10061007  RH  099%=      5-min Rain = 0
KAHS 081344Z 03008KT M01/M01 A303 RMK A01 T10061007  RH  099%=      5-min Rain = 0
KAHS 081345Z 03007KT M01/M01 A303 RMK A01 T10071008  RH  099%=      5-min Rain = 0
KAHS 081346Z 03008KT M01/M01 A303 RMK A01 T10071008  RH  099%=      5-min Rain = 0
KAHS 081347Z 04007KT M01/M01 A303 RMK A01 T10071008  RH  099%=      5-min Rain = 0
KAHS 081348Z 04005KT M01/M01 A303 RMK A01 T10071008  RH  099%=      5-min Rain = 0
KAHS 081349Z 03006KT M01/M01 A303 RMK A01 T10071008  RH  099%=      5-min Rain = 0
KAHS 081350Z 04005KT M01/M01 A303 RMK A01 T10071008  RH  099%=      5-min Rain = 0
KAHS 081351Z 03006KT M01/M01 A303 RMK A01 T10071008  RH  099%=      5-min Rain = 0
KAHS 081352Z 04007KT M01/M01 A303 RMK A01 T10071008  RH  099%=      5-min Rain = 0
KAHS 081353Z 04006KT M01/M01 A303 RMK A01 T10071008  RH  099%=      5-min Rain = 0
KAHS 081354Z 03006KT M01/M01 A303 RMK A01 T10071008  RH  099%=      5-min Rain = 0
KAHS 081355Z 03006KT M01/M01 A303 RMK A01 T10071008  RH  099%=      5-min Rain = 0
KAHS 081356Z 03005KT M01/M01 A303 RMK A01 T10071008  RH  099%=      5-min Rain = 0
KAHS 081357Z 03006KT M01/M01 A303 RMK A01 T10071008  RH  099%=      5-min Rain = 0
KAHS 081358Z 03006KT M01/M01 A303 RMK A01 T10071008  RH  099%=      5-min Rain = 0
KAHS 081359Z 03006KT M01/M01 A303 RMK A01 T10071008  RH  099%=      5-min Rain = 0
KAHS 081400Z 03007KT M01/M01 A303 RMK A01 T10071008  RH  099%=      5-min Rain = 0
KAHS 081401Z 03007KT M01/M01 A303 RMK A01 T10071008  RH  099%=      5-min Rain = 0
KAHS 081402Z 03006KT M01/M01 A303 RMK A01 T10071008  RH  099%=      5-min Rain = 0
KAHS 081403Z 02009KT M01/M01 A303 RMK A01 T10071008  RH  099%=      5-min Rain = 0
KAHS 081404Z 03007KT M01/M01 A303 RMK A01 T10071008  RH  099%=      5-min Rain = 0
KAHS 081405Z 03006KT M01/M01 A303 RMK A01 T10071008  RH  099%=      5-min Rain = 0
KAHS 081406Z 03006KT M01/M01 A303 RMK A01 T10071008  RH  099%=      5-min Rain = 0
KAHS 081407Z 03008KT M01/M01 A303 RMK A01 T10071008  RH  099%=      5-min Rain = 0
KAHS 081408Z 03008KT M01/M01 A303 RMK A01 T10071008  RH  099%=      5-min Rain = 0
KAHS 081409Z 03008KT M01/M01 A303 RMK A01 T10071008  RH  099%=      5-min Rain = 0
KAHS 081410Z 03008KT M01/M01 A303 RMK A01 T10071008  RH  099%=      5-min Rain = 0
KAHS 081411Z 03007KT M01/M01 A303 RMK A01 T10071008  RH  099%=      5-min Rain = 0
KAHS 081412Z 03007KT M01/M01 A303 RMK A01 T10071008  RH  099%=      5-min Rain = 0
KAHS 081413Z 03006KT M01/M01 A303 RMK A01 T10071008  RH  099%=      5-min Rain = 0
KAHS 081414Z 03006KT M01/M01 A303 RMK A01 T10071008  RH  099%=      5-min Rain = 0
KAHS 081415Z 03006KT M01/M01 A303 RMK A01 T10071008  RH  099%=      5-min Rain = 0
KAHS 081416Z 03006KT M01/M01 A303 RMK A01 T10071008  RH  099%=      5-min Rain = 0
KAHS 081417Z 03008KT M01/M01 A303 RMK A01 T10071008  RH  099%=      5-min Rain = 0
KAHS 081418Z 04007KT M01/M01 A303 RMK A01 T10071008  RH  099%=      5-min Rain = 0
KAHS 081419Z 03007KT M01/M01 A303 RMK A01 T10071008  RH  099%=      5-min Rain = 0
KAHS 081420Z 03007KT M01/M01 A303 RMK A01 T10071007  RH  099%=      5-min Rain = 0
KAHS 081421Z 03007KT M01/M01 A303 RMK A01 T10071008  RH  099%=      5-min Rain = 0
KAHS 081422Z 03005KT M01/M01 A303 RMK A01 T10071008  RH  099%=      5-min Rain = 0
KAHS 081423Z 03007KT M01/M01 A303 RMK A01 T10071007  RH  099%=      5-min Rain = 0
KAHS 081424Z 03006KT M01/M01 A303 RMK A01 T10071008  RH  099%=      5-min Rain = 0
KAHS 081425Z 04007KT M01/M01 A303 RMK A01 T10071007  RH  099%=      5-min Rain = 0
KAHS 081426Z 04005KT M01/M01 A303 RMK A01 T10071008  RH  099%=      5-min Rain = 0
KAHS 081427Z 03006KT M01/M01 A303 RMK A01 T10071008  RH  099%=      5-min Rain = 0
KAHS 081428Z 03007KT M01/M01 A3031 RMK A01 T10071007  RH  100%=      5-min Rain = 0
KAHS 081429Z 03007KT M01/M01 A3031 RMK A01 T10071007  RH  099%=      5-min Rain = 0
KAHS 081430Z 03005KT M01/M01 A3031 RMK A01 T10061007  RH  099%=      5-min Rain = 0
KAHS 081431Z 03006KT M01/M01 A3031 RMK A01 T10061007  RH  099%=      5-min Rain = 0
KAHS 081432Z 03007KT M01/M01 A3031 RMK A01 T10061007  RH  100%=      5-min Rain = 0
KAHS 081433Z 03005KT M01/M01 A3031 RMK A01 T10061007  RH  099%=      5-min Rain = 0
KAHS 081434Z 02004KT M01/M01 A3031 RMK A01 T10061007  RH  100%=      5-min Rain = 0
KAHS 081435Z 03004KT M01/M01 A3031 RMK A01 T10061007  RH  100%=      5-min Rain = 0
KAHS 081436Z 03005KT M01/M01 A3031 RMK A01 T10051006  RH  100%=      5-min Rain = 0
KAHS 081437Z 03004KT M01/M01 A3031 RMK A01 T10051006  RH  100%=      5-min Rain = 0
KAHS 081438Z 02006KT M01/M01 A3031 RMK A01 T10051006  RH  100%=      5-min Rain = 0
KAHS 081439Z 02006KT M01/M01 A3031 RMK A01 T10051006  RH  100%=      5-min Rain = 0
KAHS 081440Z 02006KT M01/M01 A3031 RMK A01 T10051006  RH  100%=      5-min Rain = 0
KAHS 081441Z 01007KT M01/M01 A3031 RMK A01 T10051006  RH  100%=      5-min Rain = 0
KAHS 081442Z 02006KT M01/M01 A3031 RMK A01 T10051006  RH  100%=      5-min Rain = 0
KAHS 081443Z 02007KT M01/M01 A3031 RMK A01 T10051006  RH  100%=      5-min Rain = 0
KAHS 081444Z 02006KT M01/M01 A3031 RMK A01 T10051006  RH  100%=      5-min Rain = 0
KAHS 081445Z 02006KT M01/M01 A3031 RMK A01 T10051006  RH  100%=      5-min Rain = 0
KAHS 081446Z 03005KT M01/M01 A3031 RMK A01 T10051006  RH  100%=      5-min Rain = 0
KAHS 081447Z 02006KT M01/M01 A3031 RMK A01 T10051006  RH  100%=      5-min Rain = 0
KAHS 081448Z 02007KT M01/M01 A3031 RMK A01 T10051006  RH  100%=      5-min Rain = 0
KAHS 081449Z 03006KT M01/M01 A3031 RMK A01 T10051006  RH  100%=      5-min Rain = 0
KAHS 081450Z 02005KT M01/M01 A3031 RMK A01 T10051006  RH  100%=      5-min Rain = 0
KAHS 081451Z 03006KT M01/M01 A3031 RMK A01 T10051006  RH  100%=      5-min Rain = 0
KAHS 081452Z 03004KT M01/M01 A3031 RMK A01 T10051006  RH  100%=      5-min Rain = 0
KAHS 081453Z 02005KT M01/M01 A3032 RMK A01 T10051006  RH  100%=      5-min Rain = 0
KAHS 081454Z 02006KT M01/M01 A3032 RMK A01 T10051005  RH  100%=      5-min Rain = 0
KAHS 081455Z 02006KT M01/M01 A3032 RMK A01 T10051006  RH  100%=      5-min Rain = 0
KAHS 081456Z 01005KT M01/M01 A3032 RMK A01 T10051006  RH  100%=      5-min Rain = 0
KAHS 081457Z 01006KT M01/M01 A3032 RMK A01 T10051005  RH  100%=      5-min Rain = 0
KAHS 081458Z 01007KT M01/M01 A3032 RMK A01 T10051006  RH  100%=      5-min Rain = 0
KAHS 081459Z 01008KT M01/M01 A3032 RMK A01 T10051006  RH  100%=      5-min Rain = 0
KAHS 081500Z 01008KT M01/M01 A3032 RMK A01 T10051006  RH  100%=      5-min Rain = 0
KAHS 081501Z 01008KT M01/M01 A3032 RMK A01 T10061006  RH  100%=      5-min Rain = 0
KAHS 081502Z 01008KT M01/M01 A3032 RMK A01 T10061007  RH  100%=      5-min Rain = 0
KAHS 081503Z 01008KT M01/M01 A3032 RMK A01 T10061007  RH  100%=      5-min Rain = 0
KAHS 081504Z 01008KT M01/M01 A3032 RMK A01 T10061007  RH  100%=      5-min Rain = 0
KAHS 081505Z 01007KT M01/M01 A3032 RMK A01 T10061007  RH  100%=      5-min Rain = 0
KAHS 081506Z 02008KT M01/M01 A3032 RMK A01 T10071007  RH  100%=      5-min Rain = 0
KAHS 081507Z 01008KT M01/M01 A3032 RMK A01 T10061007  RH  100%=      5-min Rain = 0
KAHS 081508Z 02007KT M01/M01 A3032 RMK A01 T10071007  RH  100%=      5-min Rain = 0
KAHS 081509Z 01006KT M01/M01 A3032 RMK A01 T10071007  RH  100%=      5-min Rain = 0
KAHS 081510Z 02007KT M01/M01 A3032 RMK A01 T10061007  RH  100%=      5-min Rain = 0
KAHS 081511Z 02006KT M01/M01 A3032 RMK A01 T10061007  RH  100%=      5-min Rain = 0
KAHS 081512Z 03008KT M01/M01 A3032 RMK A01 T10061007  RH  100%=      5-min Rain = 0
KAHS 081513Z 02007KT M01/M01 A3032 RMK A01 T10061007  RH  100%=      5-min Rain = 0
KAHS 081514Z 03008KT M01/M01 A3032 RMK A01 T10061007  RH  100%=      5-min Rain = 0
KAHS 081515Z 03008KT M01/M01 A3032 RMK A01 T10061007  RH  100%=      5-min Rain = 0
KAHS 081516Z 03008KT M01/M01 A3032 RMK A01 T10061007  RH  100%=      5-min Rain = 0
KAHS 081517Z 03010KT M01/M01 A3032 RMK A01 T10061007  RH  100%=      5-min Rain = 0
KAHS 081518Z 02009KT M01/M01 A3032 RMK A01 T10071007  RH  100%=      5-min Rain = 0
KAHS 081519Z 03010KT M01/M01 A3032 RMK A01 T10071007  RH  100%=      5-min Rain = 0
KAHS 081520Z 02009KT M01/M01 A3032 RMK A01 T10071007  RH  100%=      5-min Rain = 0
KAHS 081521Z 02009KT M01/M01 A3032 RMK A01 T10071007  RH  100%=      5-min Rain = 0
KAHS 081522Z 03008KT M01/M01 A3033 RMK A01 T10071007  RH  100%=      5-min Rain = 0
KAHS 081523Z 03008KT M01/M01 A3033 RMK A01 T10071007  RH  100%=      5-min Rain = 0
KAHS 081524Z 03009KT M01/M01 A3033 RMK A01 T10071007  RH  100%=      5-min Rain = 0
KAHS 081525Z 02008KT M01/M01 A3033 RMK A01 T10071007  RH  100%=      5-min Rain = 0
KAHS 081526Z 02008KT M01/M01 A3033 RMK A01 T10061007  RH  100%=      5-min Rain = 0
KAHS 081527Z 03008KT M01/M01 A3033 RMK A01 T10061007  RH  100%=      5-min Rain = 0
KAHS 081528Z 02008KT M01/M01 A3033 RMK A01 T10061007  RH  100%=      5-min Rain = 0
KAHS 081529Z 02008KT M01/M01 A3033 RMK A01 T10061007  RH  100%=      5-min Rain = 0
KAHS 081530Z 03006KT M01/M01 A3033 RMK A01 T10061007  RH  100%=      5-min Rain = 0
KAHS 081531Z 02010KT M01/M01 A3033 RMK A01 T10061007  RH  100%=      5-min Rain = 0
KAHS 081532Z 03009KT M01/M01 A3033 RMK A01 T10071007  RH  099%=      5-min Rain = 0
KAHS 081533Z 02008KT M01/M01 A3033 RMK A01 T10071007  RH  100%=      5-min Rain = 0
KAHS 081534Z 03010KT M01/M01 A3033 RMK A01 T10061007  RH  100%=      5-min Rain = 0
KAHS 081535Z 03007KT M01/M01 A3033 RMK A01 T10071007  RH  100%=      5-min Rain = 0
KAHS 081536Z 02008KT M01/M01 A3033 RMK A01 T10071007  RH  100%=      5-min Rain = 0
KAHS 081537Z 03009KT M01/M01 A3033 RMK A01 T10071007  RH  100%=      5-min Rain = 0
KAHS 081538Z 02007KT M01/M01 A3033 RMK A01 T10061007  RH  100%=      5-min Rain = 0
KAHS 081539Z 03005KT M01/M01 A3033 RMK A01 T10061007  RH  099%=      5-min Rain = 0
KAHS 081540Z 01007KT M01/M01 A3033 RMK A01 T10061007  RH  099%=      5-min Rain = 0
KAHS 081541Z 02008KT M01/M01 A3033 RMK A01 T10061007  RH  099%=      5-min Rain = 0
KAHS 081542Z 02008KT M01/M01 A3033 RMK A01 T10061007  RH  099%=      5-min Rain = 0
KAHS 081543Z 03007KT M01/M01 A3033 RMK A01 T10061007  RH  099%=      5-min Rain = 0
KAHS 081544Z 02006KT M01/M01 A3033 RMK A01 T10061007  RH  099%=      5-min Rain = 0
KAHS 081545Z 02005KT M01/M01 A3033 RMK A01 T10061007  RH  099%=      5-min Rain = 0
KAHS 081546Z 02007KT M01/M01 A3033 RMK A01 T10061006  RH  099%=      5-min Rain = 0
KAHS 081547Z 02008KT M01/M01 A3033 RMK A01 T10061007  RH  099%=      5-min Rain = 0
KAHS 081548Z 02007KT M01/M01 A3033 RMK A01 T10061007  RH  099%=      5-min Rain = 0
KAHS 081549Z 02006KT M01/M01 A3034 RMK A01 T10061007  RH  099%=      5-min Rain = 0
KAHS 081550Z 00006KT M01/M01 A3034 RMK A01 T10061007  RH  099%=      5-min Rain = 0
KAHS 081551Z 00008KT M01/M01 A3033 RMK A01 T10061007  RH  099%=      5-min Rain = 0
KAHS 081552Z 00010KT M01/M01 A3033 RMK A01 T10071008  RH  099%=      5-min Rain = 0
KAHS 081553Z 01008KT M01/M01 A3034 RMK A01 T10071008  RH  099%=      5-min Rain = 0
KAHS 081554Z 01010KT M01/M01 A3034 RMK A01 T10081009  RH  099%=      5-min Rain = 0
KAHS 081555Z 01009KT M01/M01 A3034 RMK A01 T10081009  RH  099%=      5-min Rain = 0
KAHS 081556Z 01008KT M01/M01 A3034 RMK A01 T10081009  RH  099%=      5-min Rain = 0
KAHS 081557Z 01007KT M01/M01 A3034 RMK A01 T10081009  RH  099%=      5-min Rain = 0
KAHS 081558Z 01009KT M01/M01 A3034 RMK A01 T10071008  RH  099%=      5-min Rain = 0
KAHS 081559Z 01009KT M01/M01 A3034 RMK A01 T10081009  RH  099%=      5-min Rain = 0
KAHS 081600Z 01009KT M01/M01 A3034 RMK A01 T10081009  RH  099%=      5-min Rain = 0
KAHS 081601Z 01010KT M01/M01 A3034 RMK A01 T10081009  RH  099%=      5-min Rain = 0
KAHS 081602Z 01010KT M01/M01 A3034 RMK A01 T10081009  RH  099%=      5-min Rain = 0
KAHS 081603Z 01010KT M01/M01 A3034 RMK A01 T10081009  RH  099%=      5-min Rain = 0
KAHS 081604Z 01011KT M01/M01 A3034 RMK A01 T10091010  RH  099%=      5-min Rain = 0
KAHS 081605Z 01010KT M01/M01 A3034 RMK A01 T10091010  RH  099%=      5-min Rain = 0
KAHS 081606Z 02011KT M01/M01 A3034 RMK A01 T10091010  RH  099%=      5-min Rain = 0
KAHS 081607Z 01008KT M01/M01 A3034 RMK A01 T10081010  RH  099%=      5-min Rain = 0
KAHS 081608Z 02008KT M01/M01 A3034 RMK A01 T10081009  RH  099%=      5-min Rain = 0
KAHS 081609Z 01007KT M01/M01 A3034 RMK A01 T10081009  RH  099%=      5-min Rain = 0
KAHS 081610Z 02009KT M01/M01 A3034 RMK A01 T10071009  RH  099%=      5-min Rain = 0
KAHS 081611Z 02008KT M01/M01 A3034 RMK A01 T10071009  RH  099%=      5-min Rain = 0
KAHS 081612Z 01008KT M01/M01 A3034 RMK A01 T10071009  RH  099%=      5-min Rain = 0
KAHS 081613Z 02009KT M01/M01 A3034 RMK A01 T10071009  RH  099%=      5-min Rain = 0
KAHS 081614Z 01011KT M01/M01 A3034 RMK A01 T10071009  RH  099%=      5-min Rain = 0
KAHS 081615Z 01010KT M01/M01 A3034 RMK A01 T10071009  RH  099%=      5-min Rain = 0
KAHS 081616Z 01009KT M01/M01 A3034 RMK A01 T10071009  RH  099%=      5-min Rain = 0
KAHS 081617Z 01008KT M01/M01 A3034 RMK A01 T10071009  RH  099%=      5-min Rain = 0
KAHS 081618Z 01007KT M01/M01 A3034 RMK A01 T10071008  RH  099%=      5-min Rain = 0
KAHS 081619Z 02006KT M01/M01 A3034 RMK A01 T10071008  RH  099%=      5-min Rain = 0
KAHS 081620Z 03008KT M01/M01 A3034 RMK A01 T10061008  RH  099%=      5-min Rain = 0
KAHS 081621Z 03009KT M01/M01 A3034 RMK A01 T10051007  RH  099%=      5-min Rain = 0
KAHS 081622Z 02008KT M01/M01 A3034 RMK A01 T10051007  RH  099%=      5-min Rain = 0
KAHS 081623Z 02007KT M01/M01 A3034 RMK A01 T10051007  RH  099%=      5-min Rain = 0
KAHS 081624Z 02008KT M01/M01 A3034 RMK A01 T10051007  RH  099%=      5-min Rain = 0
KAHS 081625Z 02008KT M01/M01 A3034 RMK A01 T10051007  RH  099%=      5-min Rain = 0
KAHS 081626Z 03009KT M00/M01 A3034 RMK A01 T10041006  RH  099%=      5-min Rain = 0
KAHS 081627Z 02009KT M00/M01 A3034 RMK A01 T10041006  RH  099%=      5-min Rain = 0
KAHS 081628Z 03008KT M00/M01 A3034 RMK A01 T10041007  RH  098%=      5-min Rain = 0
KAHS 081629Z 02009KT M00/M01 A3034 RMK A01 T10041006  RH  098%=      5-min Rain = 0
KAHS 081630Z 02009KT M00/M01 A3034 RMK A01 T10041006  RH  098%=      5-min Rain = 0
KAHS 081631Z 02007KT M00/M01 A3034 RMK A01 T10041006  RH  098%=      5-min Rain = 0
KAHS 081632Z 03007KT M00/M01 A3034 RMK A01 T10031006  RH  098%=      5-min Rain = 0
KAHS 081633Z 03009KT M00/M01 A3034 RMK A01 T10031005  RH  098%=      5-min Rain = 0
KAHS 081634Z 03007KT M00/M01 A3034 RMK A01 T10031005  RH  098%=      5-min Rain = 0
KAHS 081635Z 03008KT M00/M01 A3034 RMK A01 T10031005  RH  098%=      5-min Rain = 0
KAHS 081636Z 03008KT M00/M01 A3034 RMK A01 T10021005  RH  098%=      5-min Rain = 0
KAHS 081637Z 03007KT M00/M01 A3034 RMK A01 T10021005  RH  098%=      5-min Rain = 0
KAHS 081638Z 03008KT M00/M01 A3034 RMK A01 T10021005  RH  098%=      5-min Rain = 0
KAHS 081639Z 03007KT M00/M00 A3034 RMK A01 T10021004  RH  098%=      5-min Rain = 0
KAHS 081640Z 03007KT M00/M00 A3034 RMK A01 T10011004  RH  098%=      5-min Rain = 0
KAHS 081641Z 03008KT M00/M00 A3034 RMK A01 T10021004  RH  098%=      5-min Rain = 0
KAHS 081642Z 03010KT M00/M01 A3034 RMK A01 T10021005  RH  098%=      5-min Rain = 0
KAHS 081643Z 02007KT M00/M01 A3034 RMK A01 T10021005  RH  098%=      5-min Rain = 0
KAHS 081644Z 03006KT M00/M01 A3034 RMK A01 T10021005  RH  098%=      5-min Rain = 0
KAHS 081645Z 01006KT M00/M01 A3034 RMK A01 T10021005  RH  098%=      5-min Rain = 0
KAHS 081646Z 01007KT M00/M01 A3034 RMK A01 T10011005  RH  098%=      5-min Rain = 0
KAHS 081647Z 01008KT M00/M01 A3034 RMK A01 T10021005  RH  097%=      5-min Rain = 0
KAHS 081648Z 02008KT M00/M01 A3034 RMK A01 T10021005  RH  097%=      5-min Rain = 0
KAHS 081649Z 02007KT M00/M01 A3034 RMK A01 T10021006  RH  097%=      5-min Rain = 0
KAHS 081650Z 02007KT M00/M01 A3034 RMK A01 T10021005  RH  097%=      5-min Rain = 0
KAHS 081651Z 02007KT M00/M01 A3034 RMK A01 T10011005  RH  097%=      5-min Rain = 0
KAHS 081652Z 02010KT M00/M01 A3034 RMK A01 T10021005  RH  097%=      5-min Rain = 0
KAHS 081653Z 01009KT M00/M01 A3034 RMK A01 T10021006  RH  097%=      5-min Rain = 0
KAHS 081654Z 02007KT M00/M01 A3034 RMK A01 T10021006  RH  097%=      5-min Rain = 0
KAHS 081655Z 02008KT M00/M01 A3034 RMK A01 T10021006  RH  097%=      5-min Rain = 0
KAHS 081656Z 02007KT M00/M01 A3034 RMK A01 T10021005  RH  097%=      5-min Rain = 0
KAHS 081657Z 02008KT M00/M01 A3034 RMK A01 T10011005  RH  097%=      5-min Rain = 0
KAHS 081658Z 02007KT M00/M01 A3034 RMK A01 T10011005  RH  097%=      5-min Rain = 0
KAHS 081659Z 02008KT 00/00 A3034 RMK A01 T00-000-4  RH  097%=      5-min Rain = 0
KAHS 081700Z 01008KT 00/00 A3034 RMK A01 T00-000-4  RH  097%=      5-min Rain = 0
KAHS 081701Z 02009KT 00/01 A3034 RMK A01 T00-000-5  RH  097%=      5-min Rain = 0
KAHS 081702Z 01008KT M00/M01 A3034 RMK A01 T10011005  RH  097%=      5-min Rain = 0
KAHS 081703Z 02007KT M00/M01 A3034 RMK A01 T10011005  RH  097%=      5-min Rain = 0
KAHS 081704Z 01008KT 00/01 A3034 RMK A01 T00-000-5  RH  097%=      5-min Rain = 0
KAHS 081705Z 01008KT M00/M01 A3034 RMK A01 T10011005  RH  097%=      5-min Rain = 0
KAHS 081706Z 01007KT M00/M01 A3034 RMK A01 T10011005  RH  097%=      5-min Rain = 0
KAHS 081707Z 01008KT 00/00 A3034 RMK A01 T00-000-4  RH  097%=      5-min Rain = 0
KAHS 081708Z 02009KT 00/00 A3034 RMK A01 T00-000-4  RH  097%=      5-min Rain = 0
KAHS 081709Z 02009KT M00/M01 A3034 RMK A01 T10011005  RH  097%=      5-min Rain = 0
KAHS 081710Z 02008KT M00/M01 A3034 RMK A01 T10011005  RH  097%=      5-min Rain = 0
KAHS 081711Z 02008KT 00/00 A3034 RMK A01 T00-000-4  RH  097%=      5-min Rain = 0
KAHS 081712Z 02008KT 00/00 A3034 RMK A01 T000000-3  RH  097%=      5-min Rain = 0
KAHS 081713Z 02009KT 00/00 A3034 RMK A01 T00-000-4  RH  097%=      5-min Rain = 0
KAHS 081714Z 03008KT 00/00 A3034 RMK A01 T00-000-4  RH  097%=      5-min Rain = 0
KAHS 081715Z 02008KT 00/00 A3034 RMK A01 T00-000-4  RH  097%=      5-min Rain = 0
KAHS 081716Z 02005KT 00/00 A3034 RMK A01 T000000-3  RH  097%=      5-min Rain = 0
KAHS 081717Z 02008KT 00/M00 A3034 RMK A01 T00011003  RH  097%=      5-min Rain = 0
KAHS 081718Z 01008KT 00/00 A3034 RMK A01 T000000-3  RH  097%=      5-min Rain = 0
KAHS 081719Z 02007KT 00/00 A3034 RMK A01 T000000-3  RH  097%=      5-min Rain = 0
KAHS 081720Z 02007KT 00/00 A3034 RMK A01 T000000-3  RH  097%=      5-min Rain = 0
KAHS 081721Z 02007KT 00/00 A3034 RMK A01 T000000-3  RH  097%=      5-min Rain = 0
KAHS 081722Z 02008KT 00/M00 A3034 RMK A01 T00011003  RH  098%=      5-min Rain = 0
KAHS 081723Z 01009KT 00/M00 A3034 RMK A01 T00011002  RH  098%=      5-min Rain = 0
KAHS 081724Z 02009KT 00/00 A3034 RMK A01 T000000-3  RH  098%=      5-min Rain = 0
KAHS 081725Z 02010KT 00/00 A3034 RMK A01 T000000-3  RH  098%=      5-min Rain = 0
KAHS 081726Z 01009KT 00/00 A3034 RMK A01 T000000-3  RH  098%=      5-min Rain = 0
KAHS 081727Z 01008KT 00/00 A3034 RMK A01 T000000-3  RH  098%=      5-min Rain = 0
KAHS 081728Z 01007KT 00/M00 A3034 RMK A01 T00011002  RH  098%=      5-min Rain = 0
KAHS 081729Z 02008KT 00/M00 A3034 RMK A01 T00011001  RH  098%=      5-min Rain = 0
KAHS 081730Z 02008KT 00/M00 A3034 RMK A01 T00021001  RH  098%=      5-min Rain = 0
KAHS 081731Z 02007KT 00/00 A3034 RMK A01 T00020000  RH  098%=      5-min Rain = 0
KAHS 081732Z 02008KT 00/00 A3034 RMK A01 T00030001  RH  099%=      5-min Rain = 0
KAHS 081733Z 02009KT 00/00 A3034 RMK A01 T00030001  RH  099%=      5-min Rain = 0
KAHS 081734Z 01008KT 00/00 A3034 RMK A01 T00030001  RH  099%=      5-min Rain = 0
KAHS 081735Z 02007KT 00/00 A3034 RMK A01 T00020000  RH  099%=      5-min Rain = 0
KAHS 081736Z 01009KT 00/00 A3034 RMK A01 T00020000  RH  099%=      5-min Rain = 0
KAHS 081737Z 01008KT 00/00 A3034 RMK A01 T00020001  RH  099%=      5-min Rain = 0
KAHS 081738Z 01009KT 00/00 A3033 RMK A01 T00020001  RH  099%=      5-min Rain = 0
KAHS 081739Z 01008KT 00/00 A3033 RMK A01 T00020000  RH  099%=      5-min Rain = 0
KAHS 081740Z 02008KT 00/00 A3033 RMK A01 T00020000  RH  099%=      5-min Rain = 0
KAHS 081741Z 02009KT 00/00 A3033 RMK A01 T00020001  RH  099%=      5-min Rain = 0
KAHS 081742Z 02007KT 00/00 A3033 RMK A01 T00020001  RH  099%=      5-min Rain = 0
KAHS 081743Z 02006KT 00/00 A3033 RMK A01 T00030002  RH  099%=      5-min Rain = 0
KAHS 081744Z 01009KT 00/00 A3033 RMK A01 T00040003  RH  099%=      5-min Rain = 0
KAHS 081745Z 01008KT 00/00 A3033 RMK A01 T00020000  RH  099%=      5-min Rain = 0
KAHS 081746Z 02008KT 00/00 A3033 RMK A01 T00030001  RH  099%=      5-min Rain = 0
KAHS 081747Z 01007KT 00/00 A3033 RMK A01 T00030002  RH  099%=      5-min Rain = 0
KAHS 081748Z 01008KT 00/00 A3033 RMK A01 T00030002  RH  099%=      5-min Rain = 0
KAHS 081749Z 01008KT 00/00 A3033 RMK A01 T00030001  RH  099%=      5-min Rain = 0
KAHS 081750Z 01008KT 00/00 A3033 RMK A01 T00020000  RH  099%=      5-min Rain = 0
KAHS 081751Z 01008KT 00/00 A3033 RMK A01 T00020000  RH  099%=      5-min Rain = 0
KAHS 081752Z 01009KT 00/00 A3033 RMK A01 T00020000  RH  099%=      5-min Rain = 0
KAHS 081753Z 01009KT 00/00 A3033 RMK A01 T00020000  RH  099%=      5-min Rain = 0
KAHS 081754Z 02009KT 00/00 A3033 RMK A01 T00020000  RH  099%=      5-min Rain = 0
KAHS 081755Z 01007KT 00/00 A3033 RMK A01 T00020001  RH  099%=      5-min Rain = 0
KAHS 081756Z 01008KT 00/00 A3033 RMK A01 T00030002  RH  099%=      5-min Rain = 0
KAHS 081757Z 01011KT 00/00 A3033 RMK A01 T00020001  RH  099%=      5-min Rain = 0
KAHS 081758Z 01010KT 00/00 A3033 RMK A01 T00020000  RH  099%=      5-min Rain = 0
KAHS 081759Z 01010KT 00/M00 A3033 RMK A01 T00011001  RH  099%=      5-min Rain = 0
KAHS 081800Z 01009KT 00/00 A3033 RMK A01 T000000-1  RH  099%=      5-min Rain = 0
KAHS 081801Z 01010KT 00/00 A3033 RMK A01 T000100-0  RH  099%=      5-min Rain = 0
KAHS 081802Z 01009KT 00/00 A3033 RMK A01 T000100-0  RH  099%=      5-min Rain = 0
KAHS 081803Z 00009KT 00/00 A3033 RMK A01 T00020000  RH  099%=      5-min Rain = 0
KAHS 081804Z 36008KT 00/00 A3033 RMK A01 T00020001  RH  099%=      5-min Rain = 0
KAHS 081805Z 01008KT 00/00 A3033 RMK A01 T00020001  RH  099%=      5-min Rain = 0
KAHS 081806Z 00008KT 00/00 A3033 RMK A01 T00020000  RH  099%=      5-min Rain = 0
KAHS 081807Z 00010KT 00/00 A3033 RMK A01 T000100-0  RH  099%=      5-min Rain = 0
KAHS 081808Z 00009KT 00/00 A3033 RMK A01 T000000-2  RH  099%=      5-min Rain = 0
KAHS 081809Z 01010KT 00/M00 A3033 RMK A01 T00011001  RH  098%=      5-min Rain = 0
KAHS 081810Z 00010KT 00/M00 A3033 RMK A01 T00011002  RH  098%=      5-min Rain = 0
KAHS 081811Z 01010KT 00/00 A3033 RMK A01 T000000-3  RH  098%=      5-min Rain = 0
KAHS 081812Z 01012KT 00/00 A3033 RMK A01 T000000-3  RH  098%=      5-min Rain = 0
KAHS 081813Z 01009KT 00/00 A3033 RMK A01 T000000-4  RH  097%=      5-min Rain = 0
KAHS 081814Z 01009KT 00/M00 A3033 RMK A01 T00011004  RH  097%=      5-min Rain = 0
KAHS 081815Z 01010KT 00/M00 A3033 RMK A01 T00011004  RH  097%=      5-min Rain = 0
KAHS 081816Z 01011KT 00/M00 A3033 RMK A01 T00011004  RH  096%=      5-min Rain = 0
KAHS 081817Z 00010KT 00/01 A3033 RMK A01 T000000-6  RH  096%=      5-min Rain = 0
KAHS 081818Z 00011KT 00/01 A3033 RMK A01 T000000-6  RH  095%=      5-min Rain = 0
KAHS 081819Z 01010KT 00/01 A3033 RMK A01 T000000-7  RH  095%=      5-min Rain = 0
KAHS 081820Z 00010KT 00/01 A3033 RMK A01 T00-000-8  RH  094%=      5-min Rain = 0
KAHS 081821Z 01009KT 00/01 A3033 RMK A01 T000000-8  RH  094%=      5-min Rain = 0
KAHS 081822Z 02010KT 00/01 A3033 RMK A01 T000000-8  RH  094%=      5-min Rain = 0
KAHS 081823Z 02009KT 00/M01 A3032 RMK A01 T00011007  RH  094%=      5-min Rain = 0
KAHS 081824Z 01008KT 00/M01 A3032 RMK A01 T00011007  RH  094%=      5-min Rain = 0
KAHS 081825Z 01008KT 00/M01 A3032 RMK A01 T00021006  RH  095%=      5-min Rain = 0
KAHS 081826Z 02008KT 00/M00 A3032 RMK A01 T00031004  RH  095%=      5-min Rain = 0
KAHS 081827Z 01009KT 00/M01 A3032 RMK A01 T00031005  RH  095%=      5-min Rain = 0
KAHS 081828Z 01009KT 00/M01 A3032 RMK A01 T00021005  RH  095%=      5-min Rain = 0
KAHS 081829Z 00008KT 00/M01 A3032 RMK A01 T00021006  RH  094%=      5-min Rain = 0
KAHS 081830Z 00008KT 00/M01 A3032 RMK A01 T00011007  RH  094%=      5-min Rain = 0
KAHS 081831Z 00010KT 00/M01 A3032 RMK A01 T00011007  RH  094%=      5-min Rain = 0
KAHS 081832Z 36009KT 00/M01 A3032 RMK A01 T00011008  RH  094%=      5-min Rain = 0
KAHS 081833Z 00007KT 00/01 A3032 RMK A01 T000000-8  RH  094%=      5-min Rain = 0
KAHS 081834Z 01008KT 00/M01 A3032 RMK A01 T00011007  RH  095%=      5-min Rain = 0
KAHS 081835Z 00007KT 00/M01 A3032 RMK A01 T00011007  RH  095%=      5-min Rain = 0.01
KAHS 081836Z 35008KT 00/01 A3032 RMK A01 T000000-7  RH  095%=      5-min Rain = 0
KAHS 081837Z 00009KT 00/01 A3032 RMK A01 T00-000-8  RH  095%=      5-min Rain = 0
KAHS 081838Z 00009KT M00/M01 A3032 RMK A01 T10011008  RH  095%=      5-min Rain = 0
KAHS 081839Z 36009KT M00/M01 A3032 RMK A01 T10011009  RH  095%=      5-min Rain = 0
KAHS 081840Z 00009KT M00/M01 A3032 RMK A01 T10011009  RH  095%=      5-min Rain = 0
KAHS 081841Z 01008KT M00/M01 A3032 RMK A01 T10011008  RH  095%=      5-min Rain = 0.01
KAHS 081842Z 01008KT M00/M01 A3032 RMK A01 T10011008  RH  095%=      5-min Rain = 0
KAHS 081843Z 36008KT M00/M01 A3032 RMK A01 T10011008  RH  096%=      5-min Rain = 0
KAHS 081844Z 36007KT M00/M01 A3032 RMK A01 T10021008  RH  096%=      5-min Rain = 0
KAHS 081845Z 36007KT M00/M01 A3032 RMK A01 T10021007  RH  096%=      5-min Rain = 0
KAHS 081846Z 35007KT M00/M01 A3032 RMK A01 T10011007  RH  096%=      5-min Rain = 0
KAHS 081847Z 35007KT M00/M01 A3032 RMK A01 T10011007  RH  096%=      5-min Rain = 0
KAHS 081848Z 35008KT M00/M01 A3032 RMK A01 T10011007  RH  096%=      5-min Rain = 0
KAHS 081849Z 35007KT M00/M01 A3032 RMK A01 T10021008  RH  096%=      5-min Rain = 0
KAHS 081850Z 00006KT M00/M01 A3032 RMK A01 T10021008  RH  096%=      5-min Rain = 0.01
KAHS 081851Z 00008KT M00/M01 A3032 RMK A01 T10011007  RH  096%=      5-min Rain = 0
KAHS 081852Z 00008KT M00/M01 A3032 RMK A01 T10011007  RH  096%=      5-min Rain = 0
KAHS 081853Z 01007KT M00/M01 A3031 RMK A01 T10011007  RH  095%=      5-min Rain = 0
KAHS 081854Z 01008KT 00/01 A3031 RMK A01 T00-000-7  RH  095%=      5-min Rain = 0
KAHS 081855Z 01007KT 00/01 A3031 RMK A01 T000000-7  RH  095%=      5-min Rain = 0
KAHS 081856Z 36005KT 00/M01 A3031 RMK A01 T00011005  RH  095%=      5-min Rain = 0
KAHS 081857Z 00005KT 00/M01 A3031 RMK A01 T00021005  RH  095%=      5-min Rain = 0
KAHS 081858Z 01005KT 00/M00 A3031 RMK A01 T00031004  RH  095%=      5-min Rain = 0.01
KAHS 081859Z 35006KT 00/M00 A3031 RMK A01 T00031004  RH  095%=      5-min Rain = 0
KAHS 081900Z 35005KT 00/M01 A3031 RMK A01 T00021006  RH  094%=      5-min Rain = 0
KAHS 081901Z 00006KT 00/M01 A3031 RMK A01 T00031005  RH  094%=      5-min Rain = 0
KAHS 081902Z 00006KT 00/M01 A3031 RMK A01 T00031005  RH  094%=      5-min Rain = 0
KAHS 081903Z 01008KT 00/M00 A3031 RMK A01 T00041004  RH  094%=      5-min Rain = 0.01
KAHS 081904Z 01007KT 00/M01 A3031 RMK A01 T00031005  RH  094%=      5-min Rain = 0
KAHS 081905Z 36007KT 00/M01 A3031 RMK A01 T00031005  RH  094%=      5-min Rain = 0
KAHS 081906Z 35006KT 00/M01 A3031 RMK A01 T00031006  RH  094%=      5-min Rain = 0
KAHS 081907Z 00009KT 00/M01 A3031 RMK A01 T00021006  RH  094%=      5-min Rain = 0
KAHS 081908Z 36008KT 00/M01 A303 RMK A01 T00021007  RH  094%=      5-min Rain = 0
KAHS 081909Z 35006KT 00/M01 A303 RMK A01 T00021007  RH  094%=      5-min Rain = 0
KAHS 081910Z 36006KT 00/M01 A303 RMK A01 T00031006  RH  094%=      5-min Rain = 0
KAHS 081911Z 35006KT 00/M01 A303 RMK A01 T00031006  RH  094%=      5-min Rain = 0.01
KAHS 081912Z 36007KT 00/M01 A303 RMK A01 T00041006  RH  094%=      5-min Rain = 0
KAHS 081913Z 36007KT 00/M01 A303 RMK A01 T00041006  RH  093%=      5-min Rain = 0
KAHS 081914Z 36006KT 01/M01 A303 RMK A01 T00051005  RH  093%=      5-min Rain = 0
KAHS 081915Z 00006KT 01/M00 A303 RMK A01 T00061004  RH  093%=      5-min Rain = 0
KAHS 081916Z 35005KT 01/M01 A303 RMK A01 T00061005  RH  093%=      5-min Rain = 0
KAHS 081917Z 35006KT 01/M01 A303 RMK A01 T00061005  RH  093%=      5-min Rain = 0.01
KAHS 081918Z 00005KT 01/M01 A303 RMK A01 T00061005  RH  093%=      5-min Rain = 0
KAHS 081919Z 00006KT 01/M00 A303 RMK A01 T00061003  RH  093%=      5-min Rain = 0
KAHS 081920Z 00005KT 01/M00 A303 RMK A01 T00071002  RH  093%=      5-min Rain = 0
KAHS 081921Z 34004KT 01/M00 A303 RMK A01 T00071002  RH  094%=      5-min Rain = 0
KAHS 081922Z 34006KT 01/M00 A3029 RMK A01 T00061004  RH  093%=      5-min Rain = 0.01
KAHS 081923Z 34007KT 01/M01 A3029 RMK A01 T00051006  RH  092%=      5-min Rain = 0
KAHS 081924Z 34006KT 01/M01 A3029 RMK A01 T00051006  RH  092%=      5-min Rain = 0
KAHS 081925Z 35007KT 00/M01 A3029 RMK A01 T00041007  RH  092%=      5-min Rain = 0
KAHS 081926Z 01007KT 00/M01 A3029 RMK A01 T00041008  RH  092%=      5-min Rain = 0
KAHS 081927Z 34007KT 00/M01 A3029 RMK A01 T00041007  RH  092%=      5-min Rain = 0
KAHS 081928Z 01006KT 00/M01 A3029 RMK A01 T00041006  RH  092%=      5-min Rain = 0.01
KAHS 081929Z 35004KT 01/M01 A3029 RMK A01 T00051005  RH  093%=      5-min Rain = 0
KAHS 081930Z 34006KT 01/M01 A3029 RMK A01 T00061006  RH  092%=      5-min Rain = 0
KAHS 081931Z 34006KT 01/M01 A3029 RMK A01 T00061006  RH  092%=      5-min Rain = 0
KAHS 081932Z 34005KT 01/M01 A3029 RMK A01 T00061006  RH  091%=      5-min Rain = 0
KAHS 081933Z 35006KT 01/M01 A3029 RMK A01 T00061007  RH  091%=      5-min Rain = 0
KAHS 081934Z 35007KT 01/M01 A3029 RMK A01 T00061008  RH  090%=      5-min Rain = 0.01
KAHS 081935Z 01007KT 01/M01 A3029 RMK A01 T00061007  RH  091%=      5-min Rain = 0
KAHS 081936Z 00007KT 01/M01 A3029 RMK A01 T00071006  RH  091%=      5-min Rain = 0
KAHS 081937Z 35005KT 01/M01 A3029 RMK A01 T00071005  RH  092%=      5-min Rain = 0
KAHS 081938Z 00006KT 01/M00 A3029 RMK A01 T00081004  RH  092%=      5-min Rain = 0
KAHS 081939Z 35004KT 01/M00 A3029 RMK A01 T00081003  RH  092%=      5-min Rain = 0.01
KAHS 081940Z 33006KT 01/M00 A3029 RMK A01 T00091003  RH  092%=      5-min Rain = 0
KAHS 081941Z 34007KT 01/M01 A3029 RMK A01 T00081006  RH  091%=      5-min Rain = 0
KAHS 081942Z 34007KT 01/M01 A3029 RMK A01 T00071006  RH  090%=      5-min Rain = 0
KAHS 081943Z 34007KT 01/M01 A3029 RMK A01 T00061008  RH  090%=      5-min Rain = 0
KAHS 081944Z 35006KT 01/M01 A3029 RMK A01 T00061009  RH  090%=      5-min Rain = 0
KAHS 081945Z 35006KT 01/M01 A3029 RMK A01 T00061008  RH  091%=      5-min Rain = 0.01
KAHS 081946Z 34006KT 01/M01 A3029 RMK A01 T00071006  RH  091%=      5-min Rain = 0
KAHS 081947Z 34007KT 01/M01 A3029 RMK A01 T00071006  RH  091%=      5-min Rain = 0
KAHS 081948Z 34007KT 01/M01 A3029 RMK A01 T00071008  RH  090%=      5-min Rain = 0
KAHS 081949Z 34007KT 01/M01 A3028 RMK A01 T00081007  RH  090%=      5-min Rain = 0
KAHS 081950Z 34007KT 01/M01 A3028 RMK A01 T00081007  RH  090%=      5-min Rain = 0
KAHS 081951Z 34006KT 01/M01 A3028 RMK A01 T00081007  RH  089%=      5-min Rain = 0
KAHS 081952Z 34006KT 01/M01 A3028 RMK A01 T00091007  RH  089%=      5-min Rain = 0.01
KAHS 081953Z 34006KT 01/M01 A3028 RMK A01 T00091008  RH  089%=      5-min Rain = 0
KAHS 081954Z 34006KT 01/M01 A3028 RMK A01 T00091008  RH  088%=      5-min Rain = 0
KAHS 081955Z 34008KT 01/M01 A3028 RMK A01 T00091008  RH  088%=      5-min Rain = 0
KAHS 081956Z 34006KT 01/M01 A3028 RMK A01 T00091009  RH  088%=      5-min Rain = 0
KAHS 081957Z 00006KT 01/M01 A3028 RMK A01 T00101006  RH  089%=      5-min Rain = 0
KAHS 081958Z 36008KT 01/M01 A3028 RMK A01 T00111006  RH  089%=      5-min Rain = 0
KAHS 081959Z 35006KT 01/M01 A3028 RMK A01 T00111007  RH  088%=      5-min Rain = 0
KAHS 082000Z 36006KT 01/M01 A3028 RMK A01 T00121006  RH  088%=      5-min Rain = 0.01
KAHS 082001Z 36007KT 01/M01 A3028 RMK A01 T00121006  RH  088%=      5-min Rain = 0
KAHS 082002Z 35007KT 01/M01 A3028 RMK A01 T00111007  RH  088%=      5-min Rain = 0
KAHS 082003Z 34008KT 01/M01 A3028 RMK A01 T00101008  RH  088%=      5-min Rain = 0
KAHS 082004Z 35007KT 01/M01 A3028 RMK A01 T00101009  RH  088%=      5-min Rain = 0
KAHS 082005Z 35007KT 01/M01 A3028 RMK A01 T00101008  RH  088%=      5-min Rain = 0
KAHS 082006Z 36006KT 01/M01 A3028 RMK A01 T00111006  RH  088%=      5-min Rain = 0
KAHS 082007Z 35005KT 01/M01 A3028 RMK A01 T00111006  RH  088%=      5-min Rain = 0.01
KAHS 082008Z 01004KT 01/M00 A3028 RMK A01 T00131004  RH  089%=      5-min Rain = 0
KAHS 082009Z 35007KT 01/M00 A3028 RMK A01 T00141002  RH  089%=      5-min Rain = 0
KAHS 082010Z 34008KT 01/M00 A3028 RMK A01 T00131003  RH  089%=      5-min Rain = 0
KAHS 082011Z 34007KT 01/M01 A3028 RMK A01 T00131006  RH  088%=      5-min Rain = 0
KAHS 082012Z 35007KT 01/M01 A3028 RMK A01 T00121006  RH  087%=      5-min Rain = 0
KAHS 082013Z 34005KT 01/M00 A3028 RMK A01 T00141003  RH  088%=      5-min Rain = 0
KAHS 082014Z 35007KT 02/00 A3028 RMK A01 T00170001  RH  089%=      5-min Rain = 0
KAHS 082015Z 35007KT 02/M00 A3028 RMK A01 T00161002  RH  088%=      5-min Rain = 0.01
KAHS 082016Z 00008KT 02/M00 A3028 RMK A01 T00171002  RH  088%=      5-min Rain = 0
KAHS 082017Z 35008KT 02/M00 A3028 RMK A01 T00171002  RH  087%=      5-min Rain = 0
KAHS 082018Z 34006KT 02/M00 A3028 RMK A01 T00161004  RH  087%=      5-min Rain = 0
KAHS 082019Z 35007KT 02/M00 A3028 RMK A01 T00151004  RH  087%=      5-min Rain = 0
KAHS 082020Z 35006KT 02/M00 A3028 RMK A01 T00161002  RH  088%=      5-min Rain = 0
KAHS 082021Z 35006KT 02/M00 A3028 RMK A01 T00161002  RH  088%=      5-min Rain = 0
KAHS 082022Z 36006KT 02/M00 A3028 RMK A01 T00161002  RH  088%=      5-min Rain = 0.01
KAHS 082023Z 35007KT 02/M00 A3028 RMK A01 T00161002  RH  088%=      5-min Rain = 0
KAHS 082024Z 01006KT 02/M00 A3028 RMK A01 T00161002  RH  088%=      5-min Rain = 0
KAHS 082025Z 00007KT 02/M00 A3028 RMK A01 T00161002  RH  088%=      5-min Rain = 0
KAHS 082026Z 00007KT 02/M00 A3028 RMK A01 T00151003  RH  088%=      5-min Rain = 0
KAHS 082027Z 01007KT 02/M00 A3028 RMK A01 T00161002  RH  088%=      5-min Rain = 0
KAHS 082028Z 00007KT 02/M00 A3028 RMK A01 T00161003  RH  087%=      5-min Rain = 0
KAHS 082029Z 36007KT 02/M01 A3027 RMK A01 T00151005  RH  086%=      5-min Rain = 0
KAHS 082030Z 36006KT 02/M00 A3027 RMK A01 T00151004  RH  087%=      5-min Rain = 0
KAHS 082031Z 36007KT 02/M00 A3027 RMK A01 T00151004  RH  087%=      5-min Rain = 0.01
KAHS 082032Z 00007KT 02/M00 A3027 RMK A01 T00151004  RH  087%=      5-min Rain = 0
KAHS 082033Z 01007KT 02/M00 A3027 RMK A01 T00151004  RH  087%=      5-min Rain = 0
KAHS 082034Z 01007KT 01/M01 A3027 RMK A01 T00141005  RH  087%=      5-min Rain = 0
KAHS 082035Z 02005KT 02/M00 A3027 RMK A01 T00151004  RH  087%=      5-min Rain = 0
KAHS 082036Z 00006KT 02/M00 A3027 RMK A01 T00151003  RH  088%=      5-min Rain = 0
KAHS 082037Z 01006KT 02/M00 A3027 RMK A01 T00151003  RH  088%=      5-min Rain = 0
KAHS 082038Z 01006KT 02/M00 A3027 RMK A01 T00151003  RH  088%=      5-min Rain = 0
KAHS 082039Z 01006KT 01/M00 A3027 RMK A01 T00141004  RH  088%=      5-min Rain = 0
KAHS 082040Z 35006KT 02/M00 A3027 RMK A01 T00151004  RH  088%=      5-min Rain = 0
KAHS 082041Z 35007KT 01/M01 A3027 RMK A01 T00141005  RH  087%=      5-min Rain = 0
KAHS 082042Z 01007KT 01/M01 A3027 RMK A01 T00141006  RH  087%=      5-min Rain = 0.01
KAHS 082043Z 00005KT 01/M01 A3027 RMK A01 T00141005  RH  087%=      5-min Rain = 0
KAHS 082044Z 35006KT 01/M00 A3027 RMK A01 T00141004  RH  088%=      5-min Rain = 0
KAHS 082045Z 35007KT 01/M01 A3027 RMK A01 T00141005  RH  087%=      5-min Rain = 0
KAHS 082046Z 34006KT 01/M01 A3027 RMK A01 T00141006  RH  087%=      5-min Rain = 0
KAHS 082047Z 35006KT 01/M00 A3027 RMK A01 T00141004  RH  088%=      5-min Rain = 0
KAHS 082048Z 35006KT 01/M00 A3027 RMK A01 T00141003  RH  088%=      5-min Rain = 0
KAHS 082049Z 34006KT 02/M00 A3027 RMK A01 T00151002  RH  088%=      5-min Rain = 0
KAHS 082050Z 00007KT 02/M00 A3027 RMK A01 T00151002  RH  088%=      5-min Rain = 0
KAHS 082051Z 35007KT 01/M01 A3027 RMK A01 T00141005  RH  087%=      5-min Rain = 0
KAHS 082052Z 35007KT 01/M01 A3027 RMK A01 T00141006  RH  087%=      5-min Rain = 0
KAHS 082053Z 35007KT 01/M01 A3027 RMK A01 T00141007  RH  086%=      5-min Rain = 0
KAHS 082054Z 35007KT 01/M01 A3027 RMK A01 T00141006  RH  087%=      5-min Rain = 0
KAHS 082055Z 34008KT 01/M01 A3027 RMK A01 T00141006  RH  087%=      5-min Rain = 0
KAHS 082056Z 35009KT 01/M01 A3027 RMK A01 T00131009  RH  085%=      5-min Rain = 0
KAHS 082057Z 35009KT 01/M01 A3028 RMK A01 T00131009  RH  085%=      5-min Rain = 0
KAHS 082058Z 35007KT 01/M01 A3028 RMK A01 T00131010  RH  085%=      5-min Rain = 0.01
KAHS 082059Z 35008KT 01/M01 A3028 RMK A01 T00131008  RH  085%=      5-min Rain = 0
KAHS 082100Z 35008KT 01/M01 A3028 RMK A01 T00131009  RH  085%=      5-min Rain = 0
KAHS 082101Z 36006KT 01/M01 A3028 RMK A01 T00141008  RH  085%=      5-min Rain = 0
KAHS 082102Z 35007KT 02/M01 A3028 RMK A01 T00151006  RH  086%=      5-min Rain = 0
KAHS 082103Z 35005KT 02/M01 A3028 RMK A01 T00151007  RH  086%=      5-min Rain = 0
KAHS 082104Z 35007KT 02/M01 A3028 RMK A01 T00151007  RH  086%=      5-min Rain = 0
KAHS 082105Z 35007KT 02/M01 A3028 RMK A01 T00151007  RH  086%=      5-min Rain = 0
KAHS 082106Z 35007KT 02/M01 A3028 RMK A01 T00151008  RH  085%=      5-min Rain = 0
KAHS 082107Z 35008KT 02/M01 A3028 RMK A01 T00151008  RH  085%=      5-min Rain = 0
KAHS 082108Z 35008KT 02/M01 A3028 RMK A01 T00151008  RH  085%=      5-min Rain = 0
KAHS 082109Z 35006KT 02/M01 A3028 RMK A01 T00151009  RH  084%=      5-min Rain = 0
KAHS 082110Z 34009KT 02/M01 A3028 RMK A01 T00151007  RH  085%=      5-min Rain = 0
KAHS 082111Z 34008KT 02/M01 A3028 RMK A01 T00151008  RH  085%=      5-min Rain = 0
KAHS 082112Z 34007KT 02/M01 A3028 RMK A01 T00151008  RH  085%=      5-min Rain = 0
KAHS 082113Z 33005KT 02/M01 A3028 RMK A01 T00171005  RH  086%=      5-min Rain = 0
KAHS 082114Z 33005KT 02/M00 A3028 RMK A01 T00171004  RH  086%=      5-min Rain = 0
KAHS 082115Z 34006KT 02/M00 A3028 RMK A01 T00181004  RH  085%=      5-min Rain = 0
KAHS 082116Z 35005KT 02/M00 A3028 RMK A01 T00191003  RH  086%=      5-min Rain = 0.01
KAHS 082117Z 00006KT 02/M00 A3028 RMK A01 T00191003  RH  085%=      5-min Rain = 0
KAHS 082118Z 35006KT 02/M00 A3027 RMK A01 T00191004  RH  085%=      5-min Rain = 0
KAHS 082119Z 36007KT 02/M00 A3027 RMK A01 T00191004  RH  085%=      5-min Rain = 0
KAHS 082120Z 35005KT 02/M00 A3027 RMK A01 T00191003  RH  085%=      5-min Rain = 0
KAHS 082121Z 00006KT 02/M00 A3027 RMK A01 T00191001  RH  086%=      5-min Rain = 0
KAHS 082122Z 36008KT 02/M00 A3027 RMK A01 T00191002  RH  086%=      5-min Rain = 0
KAHS 082123Z 36008KT 02/M01 A3027 RMK A01 T00181006  RH  084%=      5-min Rain = 0
KAHS 082124Z 35007KT 02/M01 A3027 RMK A01 T00171008  RH  083%=      5-min Rain = 0
KAHS 082125Z 00006KT 02/M01 A3027 RMK A01 T00171009  RH  083%=      5-min Rain = 0
KAHS 082126Z 00008KT 02/M01 A3027 RMK A01 T00171009  RH  083%=      5-min Rain = 0
KAHS 082127Z 36008KT 02/M01 A3027 RMK A01 T00171010  RH  082%=      5-min Rain = 0
KAHS 082128Z 36008KT 02/M01 A3027 RMK A01 T00171013  RH  081%=      5-min Rain = 0
KAHS 082129Z 35006KT 02/M01 A3027 RMK A01 T00171011  RH  082%=      5-min Rain = 0
KAHS 082130Z 35006KT 02/M01 A3027 RMK A01 T00181008  RH  083%=      5-min Rain = 0
KAHS 082131Z 35008KT 02/M01 A3027 RMK A01 T00191007  RH  083%=      5-min Rain = 0
KAHS 082132Z 35008KT 02/M01 A3027 RMK A01 T00181011  RH  081%=      5-min Rain = 0
KAHS 082133Z 35007KT 02/M01 A3027 RMK A01 T00171012  RH  081%=      5-min Rain = 0
KAHS 082134Z 35007KT 02/M01 A3027 RMK A01 T00171011  RH  082%=      5-min Rain = 0
KAHS 082135Z 35008KT 02/M01 A3027 RMK A01 T00171011  RH  082%=      5-min Rain = 0
KAHS 082136Z 35007KT 02/M01 A3027 RMK A01 T00171010  RH  082%=      5-min Rain = 0
KAHS 082137Z 34006KT 02/M01 A3027 RMK A01 T00171010  RH  082%=      5-min Rain = 0.01
KAHS 082138Z 34007KT 02/M01 A3027 RMK A01 T00181009  RH  082%=      5-min Rain = 0
KAHS 082139Z 35008KT 02/M01 A3027 RMK A01 T00181009  RH  082%=      5-min Rain = 0
KAHS 082140Z 34008KT 02/M01 A3027 RMK A01 T00181011  RH  081%=      5-min Rain = 0
KAHS 082141Z 35007KT 02/M01 A3027 RMK A01 T00181010  RH  082%=      5-min Rain = 0
KAHS 082142Z 00006KT 02/M01 A3027 RMK A01 T00181010  RH  082%=      5-min Rain = 0
KAHS 082143Z 36007KT 02/M01 A3027 RMK A01 T00191008  RH  083%=      5-min Rain = 0
KAHS 082144Z 00007KT 02/M01 A3027 RMK A01 T00191009  RH  082%=      5-min Rain = 0
KAHS 082145Z 36007KT 02/M01 A3027 RMK A01 T00201008  RH  082%=      5-min Rain = 0
KAHS 082146Z 36006KT 02/M01 A3027 RMK A01 T00221006  RH  082%=      5-min Rain = 0
KAHS 082147Z 36006KT 02/M01 A3026 RMK A01 T00241005  RH  081%=      5-min Rain = 0
KAHS 082148Z 00005KT 03/M01 A3026 RMK A01 T00251005  RH  080%=      5-min Rain = 0
KAHS 082149Z 00004KT 03/M01 A3026 RMK A01 T00251006  RH  080%=      5-min Rain = 0
KAHS 082150Z 34004KT 03/M00 A3026 RMK A01 T00281002  RH  081%=      5-min Rain = 0
KAHS 082151Z 36005KT 03/M00 A3026 RMK A01 T00291002  RH  080%=      5-min Rain = 0
KAHS 082152Z 35007KT 03/M00 A3026 RMK A01 T00291003  RH  080%=      5-min Rain = 0
KAHS 082153Z 35006KT 03/M01 A3026 RMK A01 T00261008  RH  078%=      5-min Rain = 0
KAHS 082154Z 35005KT 03/M01 A3026 RMK A01 T00261006  RH  079%=      5-min Rain = 0
KAHS 082155Z 33005KT 03/M00 A3026 RMK A01 T00271004  RH  080%=      5-min Rain = 0
KAHS 082156Z 35005KT 03/M00 A3026 RMK A01 T00281003  RH  080%=      5-min Rain = 0
KAHS 082157Z 34005KT 03/M00 A3026 RMK A01 T00291002  RH  081%=      5-min Rain = 0
KAHS 082158Z 34003KT 03/M01 A3026 RMK A01 T00271006  RH  079%=      5-min Rain = 0
KAHS 082159Z 00004KT 03/M01 A3026 RMK A01 T00261005  RH  080%=      5-min Rain = 0
KAHS 082200Z 36005KT 03/M00 A3026 RMK A01 T00271004  RH  080%=      5-min Rain = 0
KAHS 082201Z 01006KT 03/M01 A3026 RMK A01 T00271005  RH  080%=      5-min Rain = 0
KAHS 082202Z 36005KT 03/M00 A3026 RMK A01 T00271003  RH  081%=      5-min Rain = 0
KAHS 082203Z 35005KT 03/M00 A3026 RMK A01 T00281001  RH  081%=      5-min Rain = 0
KAHS 082204Z 36006KT 03/M00 A3026 RMK A01 T00271003  RH  080%=      5-min Rain = 0
KAHS 082205Z 01006KT 03/M00 A3026 RMK A01 T00271003  RH  081%=      5-min Rain = 0
KAHS 082206Z 02004KT 03/M00 A3026 RMK A01 T00271003  RH  081%=      5-min Rain = 0
KAHS 082207Z 01004KT 03/M00 A3026 RMK A01 T00281003  RH  081%=      5-min Rain = 0
KAHS 082208Z 00004KT 03/M00 A3026 RMK A01 T00271004  RH  080%=      5-min Rain = 0
KAHS 082209Z 33006KT 03/M00 A3026 RMK A01 T00281002  RH  081%=      5-min Rain = 0
KAHS 082210Z 33007KT 03/M00 A3026 RMK A01 T00281001  RH  081%=      5-min Rain = 0
KAHS 082211Z 33007KT 03/M00 A3026 RMK A01 T00281002  RH  081%=      5-min Rain = 0
KAHS 082212Z 33007KT 03/M00 A3026 RMK A01 T00271003  RH  081%=      5-min Rain = 0
KAHS 082213Z 33005KT 03/M00 A3026 RMK A01 T00261004  RH  081%=      5-min Rain = 0
KAHS 082214Z 33006KT 03/M00 A3026 RMK A01 T00261002  RH  082%=      5-min Rain = 0
KAHS 082215Z 33005KT 03/M00 A3026 RMK A01 T00251003  RH  082%=      5-min Rain = 0
KAHS 082216Z 34004KT 03/00 A3026 RMK A01 T002600-0  RH  083%=      5-min Rain = 0
KAHS 082217Z 34004KT 03/00 A3026 RMK A01 T002700-0  RH  082%=      5-min Rain = 0
KAHS 082218Z 33005KT 03/M00 A3026 RMK A01 T00271001  RH  082%=      5-min Rain = 0
KAHS 082219Z 32005KT 03/00 A3026 RMK A01 T00290002  RH  083%=      5-min Rain = 0
KAHS 082220Z 33005KT 03/00 A3026 RMK A01 T00300003  RH  082%=      5-min Rain = 0
KAHS 082221Z 34006KT 03/00 A3027 RMK A01 T00300003  RH  082%=      5-min Rain = 0
KAHS 082222Z 34006KT 03/00 A3027 RMK A01 T00300001  RH  081%=      5-min Rain = 0
KAHS 082223Z 33006KT 03/00 A3027 RMK A01 T002900-0  RH  081%=      5-min Rain = 0
KAHS 082224Z 33005KT 03/M00 A3027 RMK A01 T00291001  RH  081%=      5-min Rain = 0
KAHS 082225Z 34004KT 03/M00 A3027 RMK A01 T00291001  RH  081%=      5-min Rain = 0.01
KAHS 082226Z 35005KT 03/00 A3027 RMK A01 T00300001  RH  082%=      5-min Rain = 0
KAHS 082227Z 35005KT 03/00 A3027 RMK A01 T00300001  RH  081%=      5-min Rain = 0
KAHS 082228Z 35008KT 03/M00 A3027 RMK A01 T00301001  RH  080%=      5-min Rain = 0
KAHS 082229Z 35009KT 03/M01 A3027 RMK A01 T00291008  RH  077%=      5-min Rain = 0
KAHS 082230Z 35007KT 03/M01 A3027 RMK A01 T00301008  RH  076%=      5-min Rain = 0
KAHS 082231Z 35006KT 03/M01 A3027 RMK A01 T00301007  RH  076%=      5-min Rain = 0
KAHS 082232Z 00007KT 03/M01 A3027 RMK A01 T00301009  RH  076%=      5-min Rain = 0
KAHS 082233Z 01007KT 03/M01 A3027 RMK A01 T00291010  RH  075%=      5-min Rain = 0
KAHS 082234Z 00007KT 03/M01 A3027 RMK A01 T00281009  RH  076%=      5-min Rain = 0
KAHS 082235Z 00007KT 03/M01 A3027 RMK A01 T00291008  RH  077%=      5-min Rain = 0
KAHS 082236Z 36007KT 03/M01 A3027 RMK A01 T00301005  RH  078%=      5-min Rain = 0
KAHS 082237Z 35008KT 03/M01 A3027 RMK A01 T00291006  RH  078%=      5-min Rain = 0
KAHS 082238Z 35007KT 03/M01 A3027 RMK A01 T00281008  RH  078%=      5-min Rain = 0
KAHS 082239Z 36006KT 03/M01 A3027 RMK A01 T00271008  RH  078%=      5-min Rain = 0
KAHS 082240Z 36006KT 03/M01 A3027 RMK A01 T00271006  RH  079%=      5-min Rain = 0
KAHS 082241Z 34006KT 03/M01 A3027 RMK A01 T00271005  RH  079%=      5-min Rain = 0
KAHS 082242Z 33006KT 03/M01 A3027 RMK A01 T00271006  RH  079%=      5-min Rain = 0
KAHS 082243Z 36004KT 03/M01 A3027 RMK A01 T00271006  RH  079%=      5-min Rain = 0
KAHS 082244Z 01007KT 03/M01 A3027 RMK A01 T00271006  RH  079%=      5-min Rain = 0
KAHS 082245Z 36006KT 03/M01 A3027 RMK A01 T00271007  RH  078%=      5-min Rain = 0
KAHS 082246Z 36006KT 03/M01 A3027 RMK A01 T00271005  RH  079%=      5-min Rain = 0
KAHS 082247Z 36007KT 03/M00 A3027 RMK A01 T00281004  RH  079%=      5-min Rain = 0
KAHS 082248Z 36006KT 03/M01 A3027 RMK A01 T00281005  RH  079%=      5-min Rain = 0
KAHS 082249Z 35006KT 03/M01 A3027 RMK A01 T00281005  RH  079%=      5-min Rain = 0
KAHS 082250Z 35005KT 03/M01 A3027 RMK A01 T00281005  RH  079%=      5-min Rain = 0
KAHS 082251Z 36005KT 03/M00 A3027 RMK A01 T00281004  RH  079%=      5-min Rain = 0
KAHS 082252Z 00006KT 03/M00 A3027 RMK A01 T00281004  RH  079%=      5-min Rain = 0
KAHS 082253Z 35007KT 03/M01 A3028 RMK A01 T00281005  RH  079%=      5-min Rain = 0
KAHS 082254Z 34007KT 03/M01 A3028 RMK A01 T00271006  RH  079%=      5-min Rain = 0
KAHS 082255Z 34006KT 03/M01 A3028 RMK A01 T00271006  RH  079%=      5-min Rain = 0
KAHS 082256Z 33005KT 03/M00 A3028 RMK A01 T00271004  RH  080%=      5-min Rain = 0
KAHS 082257Z 32007KT 03/M00 A3028 RMK A01 T00271004  RH  080%=      5-min Rain = 0
KAHS 082258Z 33006KT 03/M01 A3028 RMK A01 T00271005  RH  080%=      5-min Rain = 0
KAHS 082259Z 32006KT 03/M01 A3028 RMK A01 T00271005  RH  080%=      5-min Rain = 0
KAHS 082300Z 32007KT 03/M01 A3028 RMK A01 T00261005  RH  080%=      5-min Rain = 0
KAHS 082301Z 32008KT 03/M01 A3028 RMK A01 T00261005  RH  080%=      5-min Rain = 0
KAHS 082302Z 33007KT 03/M01 A3028 RMK A01 T00251006  RH  080%=      5-min Rain = 0
KAHS 082303Z 33005KT 03/M01 A3028 RMK A01 T00251005  RH  081%=      5-min Rain = 0
KAHS 082304Z 33005KT 03/M00 A3028 RMK A01 T00251004  RH  081%=      5-min Rain = 0
KAHS 082305Z 34005KT 03/M00 A3028 RMK A01 T00251004  RH  081%=      5-min Rain = 0
KAHS 082306Z 34006KT 02/M01 A3028 RMK A01 T00241006  RH  081%=      5-min Rain = 0
KAHS 082307Z 35006KT 02/M01 A3028 RMK A01 T00231008  RH  080%=      5-min Rain = 0
KAHS 082308Z 34005KT 02/M01 A3028 RMK A01 T00231008  RH  080%=      5-min Rain = 0
KAHS 082309Z 33004KT 02/M01 A3028 RMK A01 T00231006  RH  081%=      5-min Rain = 0
KAHS 082310Z 34005KT 02/M01 A3028 RMK A01 T00231005  RH  082%=      5-min Rain = 0
KAHS 082311Z 34004KT 02/M01 A3028 RMK A01 T00231005  RH  082%=      5-min Rain = 0
KAHS 082312Z 34004KT 02/M00 A3028 RMK A01 T00241003  RH  082%=      5-min Rain = 0
KAHS 082313Z 34005KT 03/M00 A3028 RMK A01 T00251004  RH  082%=      5-min Rain = 0
KAHS 082314Z 35005KT 03/M00 A3028 RMK A01 T00251003  RH  082%=      5-min Rain = 0
KAHS 082315Z 35007KT 02/M00 A3028 RMK A01 T00241004  RH  082%=      5-min Rain = 0
KAHS 082316Z 35006KT 02/M01 A3028 RMK A01 T00231006  RH  081%=      5-min Rain = 0
KAHS 082317Z 35006KT 02/M01 A3028 RMK A01 T00231006  RH  081%=      5-min Rain = 0
KAHS 082318Z 35006KT 02/M01 A3028 RMK A01 T00231006  RH  082%=      5-min Rain = 0
KAHS 082319Z 35005KT 02/M01 A3028 RMK A01 T00231005  RH  082%=      5-min Rain = 0
KAHS 082320Z 36004KT 02/M00 A3028 RMK A01 T00231004  RH  082%=      5-min Rain = 0
KAHS 082321Z 36004KT 02/M00 A3028 RMK A01 T00231004  RH  082%=      5-min Rain = 0
KAHS 082322Z 35004KT 02/M00 A3027 RMK A01 T00231003  RH  083%=      5-min Rain = 0
KAHS 082323Z 35005KT 02/M00 A3027 RMK A01 T00231004  RH  082%=      5-min Rain = 0
KAHS 082324Z 34005KT 02/M01 A3027 RMK A01 T00231005  RH  082%=      5-min Rain = 0
KAHS 082325Z 34004KT 02/M00 A3027 RMK A01 T00231004  RH  082%=      5-min Rain = 0
KAHS 082326Z 35005KT 02/M00 A3027 RMK A01 T00231004  RH  082%=      5-min Rain = 0
KAHS 082327Z 34005KT 02/M00 A3027 RMK A01 T00231004  RH  082%=      5-min Rain = 0
KAHS 082328Z 35005KT 02/M00 A3027 RMK A01 T00221004  RH  083%=      5-min Rain = 0
KAHS 082329Z 34004KT 02/M00 A3027 RMK A01 T00221004  RH  083%=      5-min Rain = 0
KAHS 082330Z 35004KT 02/M00 A3027 RMK A01 T00221003  RH  083%=      5-min Rain = 0
KAHS 082331Z 34004KT 02/M00 A3027 RMK A01 T00221003  RH  084%=      5-min Rain = 0
KAHS 082332Z 35005KT 02/M00 A3027 RMK A01 T00221002  RH  084%=      5-min Rain = 0
KAHS 082333Z 34004KT 02/M00 A3027 RMK A01 T00211003  RH  084%=      5-min Rain = 0
KAHS 082334Z 34006KT 02/M00 A3027 RMK A01 T00221002  RH  084%=      5-min Rain = 0
KAHS 082335Z 34005KT 02/M00 A3027 RMK A01 T00211003  RH  084%=      5-min Rain = 0
KAHS 082336Z 34006KT 02/M00 A3027 RMK A01 T00211004  RH  083%=      5-min Rain = 0
KAHS 082337Z 34005KT 02/M00 A3027 RMK A01 T00211004  RH  083%=      5-min Rain = 0
KAHS 082338Z 34005KT 02/M00 A3027 RMK A01 T00211004  RH  083%=      5-min Rain = 0
KAHS 082339Z 34005KT 02/M00 A3027 RMK A01 T00211004  RH  084%=      5-min Rain = 0
KAHS 082340Z 34005KT 02/M00 A3027 RMK A01 T00211004  RH  084%=      5-min Rain = 0
KAHS 082341Z 34005KT 02/M00 A3027 RMK A01 T00211004  RH  083%=      5-min Rain = 0
KAHS 082342Z 34005KT 02/M00 A3027 RMK A01 T00211004  RH  084%=      5-min Rain = 0
KAHS 082343Z 34006KT 02/M00 A3027 RMK A01 T00211004  RH  084%=      5-min Rain = 0
KAHS 082344Z 34005KT 02/M00 A3027 RMK A01 T00211004  RH  084%=      5-min Rain = 0
KAHS 082345Z 34004KT 02/M00 A3027 RMK A01 T00211003  RH  084%=      5-min Rain = 0
KAHS 082346Z 33005KT 02/M00 A3027 RMK A01 T00211003  RH  084%=      5-min Rain = 0
KAHS 082347Z 33005KT 02/M00 A3027 RMK A01 T00201004  RH  084%=      5-min Rain = 0
KAHS 082348Z 34004KT 02/M00 A3027 RMK A01 T00201004  RH  084%=      5-min Rain = 0
KAHS 082349Z 34004KT 02/M00 A3027 RMK A01 T00201003  RH  085%=      5-min Rain = 0
KAHS 082350Z 34006KT 02/M00 A3027 RMK A01 T00201003  RH  085%=      5-min Rain = 0
KAHS 082351Z 33006KT 02/M00 A3027 RMK A01 T00201004  RH  084%=      5-min Rain = 0
KAHS 082352Z 33005KT 02/M00 A3027 RMK A01 T00201003  RH  085%=      5-min Rain = 0
KAHS 082353Z 33005KT 02/M01 A3027 RMK A01 T00191005  RH  084%=      5-min Rain = 0
KAHS 082354Z 34005KT 02/M00 A3027 RMK A01 T00201003  RH  085%=      5-min Rain = 0
KAHS 082355Z 33004KT 02/M00 A3027 RMK A01 T00191003  RH  085%=      5-min Rain = 0
KAHS 082356Z 33004KT 02/M00 A3027 RMK A01 T00191003  RH  085%=      5-min Rain = 0
KAHS 082357Z 32004KT 02/M00 A3027 RMK A01 T00191003  RH  085%=      5-min Rain = 0
KAHS 082358Z 33004KT 02/M00 A3027 RMK A01 T00191002  RH  085%=      5-min Rain = 0
KAHS 082359Z 33004KT 02/M00 A3027 RMK A01 T00191003  RH  086%=      5-min Rain = 0
KAHS 090000Z 33004KT 02/M00 A3027 RMK A01 T00191003  RH  086%=      5-min Rain = 0
KAHS 090001Z 33003KT 02/M00 A3027 RMK A01 T00191002  RH  086%=      5-min Rain = 0
KAHS 090002Z 33004KT 02/M00 A3027 RMK A01 T00191002  RH  086%=      5-min Rain = 0
KAHS 090003Z 33003KT 02/M00 A3027 RMK A01 T00191002  RH  086%=      5-min Rain = 0
KAHS 090004Z 33003KT 02/M00 A3027 RMK A01 T00191001  RH  086%=      5-min Rain = 0
KAHS 090005Z 33003KT 02/M00 A3027 RMK A01 T00181002  RH  087%=      5-min Rain = 0
KAHS 090006Z 33004KT 02/M00 A3027 RMK A01 T00181002  RH  087%=      5-min Rain = 0
KAHS 090007Z 33004KT 02/M00 A3027 RMK A01 T00181002  RH  087%=      5-min Rain = 0
KAHS 090008Z 33003KT 02/M00 A3027 RMK A01 T00181002  RH  087%=      5-min Rain = 0
KAHS 090009Z 33004KT 02/M00 A3027 RMK A01 T00181002  RH  087%=      5-min Rain = 0
KAHS 090010Z 33004KT 02/M00 A3027 RMK A01 T00181001  RH  087%=      5-min Rain = 0
KAHS 090011Z 33004KT 02/M00 A3027 RMK A01 T00181001  RH  087%=      5-min Rain = 0
KAHS 090012Z 33004KT 02/M00 A3027 RMK A01 T00181001  RH  087%=      5-min Rain = 0
KAHS 090013Z 33004KT 02/M00 A3027 RMK A01 T00171002  RH  087%=      5-min Rain = 0
KAHS 090014Z 33004KT 02/M00 A3028 RMK A01 T00171001  RH  087%=      5-min Rain = 0
KAHS 090015Z 33004KT 02/M00 A3028 RMK A01 T00171001  RH  087%=      5-min Rain = 0
KAHS 090016Z 33004KT 02/M00 A3028 RMK A01 T00171001  RH  087%=      5-min Rain = 0
KAHS 090017Z 33004KT 02/M00 A3028 RMK A01 T00171001  RH  088%=      5-min Rain = 0
KAHS 090018Z 32003KT 02/M00 A3028 RMK A01 T00171001  RH  088%=      5-min Rain = 0
KAHS 090019Z 33004KT 02/M00 A3028 RMK A01 T00171001  RH  088%=      5-min Rain = 0
KAHS 090020Z 33004KT 02/M00 A3028 RMK A01 T00161001  RH  088%=      5-min Rain = 0
KAHS 090021Z 33003KT 02/M00 A3027 RMK A01 T00161001  RH  088%=      5-min Rain = 0
KAHS 090022Z 33003KT 02/M00 A3027 RMK A01 T00161001  RH  088%=      5-min Rain = 0
KAHS 090023Z 33003KT 02/M00 A3027 RMK A01 T00151001  RH  089%=      5-min Rain = 0
KAHS 090024Z 33003KT 02/M00 A3028 RMK A01 T00161001  RH  089%=      5-min Rain = 0
KAHS 090025Z 33004KT 02/M00 A3028 RMK A01 T00151002  RH  089%=      5-min Rain = 0
KAHS 090026Z 33003KT 02/M00 A3028 RMK A01 T00151002  RH  089%=      5-min Rain = 0
KAHS 090027Z 33004KT 01/M00 A3028 RMK A01 T00141002  RH  089%=      5-min Rain = 0
KAHS 090028Z 33004KT 01/M00 A3028 RMK A01 T00141003  RH  089%=      5-min Rain = 0
KAHS 090029Z 33004KT 01/M00 A3028 RMK A01 T00141003  RH  089%=      5-min Rain = 0
KAHS 090030Z 33004KT 01/M00 A3028 RMK A01 T00131003  RH  089%=      5-min Rain = 0
KAHS 090031Z 33004KT 01/M00 A3028 RMK A01 T00131003  RH  089%=      5-min Rain = 0
KAHS 090032Z 33004KT 01/M00 A3028 RMK A01 T00121004  RH  089%=      5-min Rain = 0
KAHS 090033Z 33004KT 01/M00 A3028 RMK A01 T00121004  RH  089%=      5-min Rain = 0
KAHS 090034Z 33004KT 01/M00 A3028 RMK A01 T00121004  RH  089%=      5-min Rain = 0
KAHS 090035Z 33004KT 01/M00 A3028 RMK A01 T00111004  RH  090%=      5-min Rain = 0
KAHS 090036Z 32004KT 01/M00 A3028 RMK A01 T00111004  RH  090%=      5-min Rain = 0
KAHS 090037Z 32005KT 01/M00 A3028 RMK A01 T00111004  RH  090%=      5-min Rain = 0
KAHS 090038Z 32005KT 01/M00 A3028 RMK A01 T00101004  RH  090%=      5-min Rain = 0
KAHS 090039Z 32005KT 01/M01 A3028 RMK A01 T00101005  RH  090%=      5-min Rain = 0
KAHS 090040Z 32005KT 01/M01 A3028 RMK A01 T00091005  RH  090%=      5-min Rain = 0
KAHS 090041Z 32005KT 01/M01 A3028 RMK A01 T00091005  RH  090%=      5-min Rain = 0
KAHS 090042Z 32005KT 01/M01 A3028 RMK A01 T00081005  RH  091%=      5-min Rain = 0
KAHS 090043Z 32005KT 01/M01 A3028 RMK A01 T00081005  RH  091%=      5-min Rain = 0
KAHS 090044Z 32005KT 01/M01 A3028 RMK A01 T00081005  RH  091%=      5-min Rain = 0
KAHS 090045Z 32005KT 01/M01 A3028 RMK A01 T00081005  RH  091%=      5-min Rain = 0
KAHS 090046Z 32005KT 01/M01 A3028 RMK A01 T00081005  RH  091%=      5-min Rain = 0
KAHS 090047Z 32005KT 01/M01 A3028 RMK A01 T00071005  RH  091%=      5-min Rain = 0
KAHS 090048Z 32005KT 01/M01 A3028 RMK A01 T00071005  RH  092%=      5-min Rain = 0
KAHS 090049Z 32005KT 01/M01 A3029 RMK A01 T00061006  RH  092%=      5-min Rain = 0
KAHS 090050Z 32005KT 01/M01 A3029 RMK A01 T00061005  RH  092%=      5-min Rain = 0
KAHS 090051Z 32005KT 01/M01 A3029 RMK A01 T00061005  RH  092%=      5-min Rain = 0
KAHS 090052Z 32005KT 01/M01 A3029 RMK A01 T00061005  RH  092%=      5-min Rain = 0
KAHS 090053Z 32005KT 01/M01 A3029 RMK A01 T00061006  RH  092%=      5-min Rain = 0
KAHS 090054Z 32005KT 01/M01 A3029 RMK A01 T00061006  RH  092%=      5-min Rain = 0
KAHS 090055Z 32005KT 01/M01 A3029 RMK A01 T00061005  RH  092%=      5-min Rain = 0
KAHS 090056Z 32005KT 01/M01 A3029 RMK A01 T00061005  RH  092%=      5-min Rain = 0
KAHS 090057Z 32005KT 01/M01 A3029 RMK A01 T00061005  RH  092%=      5-min Rain = 0
KAHS 090058Z 32005KT 01/M01 A3029 RMK A01 T00061005  RH  092%=      5-min Rain = 0
KAHS 090059Z 32005KT 01/M01 A3029 RMK A01 T00061005  RH  093%=      5-min Rain = 0
KAHS 090100Z 32005KT 01/M01 A3029 RMK A01 T00061005  RH  093%=      5-min Rain = 0
KAHS 090101Z 32005KT 01/M01 A3029 RMK A01 T00061005  RH  092%=      5-min Rain = 0
KAHS 090102Z 32005KT 01/M01 A3029 RMK A01 T00061005  RH  092%=      5-min Rain = 0
KAHS 090103Z 32005KT 01/M01 A3029 RMK A01 T00061005  RH  092%=      5-min Rain = 0
KAHS 090104Z 32005KT 01/M01 A3029 RMK A01 T00061005  RH  092%=      5-min Rain = 0
KAHS 090105Z 32005KT 01/M01 A3029 RMK A01 T00061006  RH  092%=      5-min Rain = 0
KAHS 090106Z 31005KT 01/M01 A3029 RMK A01 T00061006  RH  092%=      5-min Rain = 0
KAHS 090107Z 31005KT 01/M01 A3029 RMK A01 T00061006  RH  092%=      5-min Rain = 0
KAHS 090108Z 31005KT 01/M01 A3029 RMK A01 T00051006  RH  092%=      5-min Rain = 0
KAHS 090109Z 31005KT 01/M01 A3029 RMK A01 T00051006  RH  092%=      5-min Rain = 0
KAHS 090110Z 31006KT 01/M01 A3029 RMK A01 T00051007  RH  092%=      5-min Rain = 0
KAHS 090111Z 31006KT 00/M01 A3029 RMK A01 T00041007  RH  092%=      5-min Rain = 0
KAHS 090112Z 31006KT 00/M01 A3029 RMK A01 T00041007  RH  092%=      5-min Rain = 0
KAHS 090113Z 31006KT 00/M01 A3029 RMK A01 T00041007  RH  092%=      5-min Rain = 0
KAHS 090114Z 31006KT 00/M01 A3029 RMK A01 T00041007  RH  092%=      5-min Rain = 0
KAHS 090115Z 31006KT 00/M01 A3029 RMK A01 T00041007  RH  092%=      5-min Rain = 0
KAHS 090116Z 31006KT 00/M01 A3029 RMK A01 T00041007  RH  092%=      5-min Rain = 0
KAHS 090117Z 31006KT 00/M01 A3029 RMK A01 T00041007  RH  092%=      5-min Rain = 0
KAHS 090118Z 31006KT 00/M01 A3029 RMK A01 T00041007  RH  092%=      5-min Rain = 0
KAHS 090119Z 31006KT 00/M01 A3029 RMK A01 T00041007  RH  092%=      5-min Rain = 0
KAHS 090120Z 31006KT 00/M01 A3029 RMK A01 T00041007  RH  092%=      5-min Rain = 0
KAHS 090121Z 31007KT 00/M01 A3029 RMK A01 T00041007  RH  092%=      5-min Rain = 0
KAHS 090122Z 31007KT 00/M01 A3029 RMK A01 T00041007  RH  092%=      5-min Rain = 0
KAHS 090123Z 31007KT 00/M01 A3029 RMK A01 T00041007  RH  092%=      5-min Rain = 0
KAHS 090124Z 31007KT 00/M01 A3029 RMK A01 T00041007  RH  092%=      5-min Rain = 0
KAHS 090125Z 31006KT 00/M01 A3029 RMK A01 T00041007  RH  092%=      5-min Rain = 0
KAHS 090126Z 31007KT 00/M01 A3029 RMK A01 T00041007  RH  092%=      5-min Rain = 0
KAHS 090127Z 31007KT 00/M01 A3029 RMK A01 T00041007  RH  092%=      5-min Rain = 0
KAHS 090128Z 31007KT 00/M01 A3029 RMK A01 T00041007  RH  092%=      5-min Rain = 0
KAHS 090129Z 31006KT 00/M01 A3029 RMK A01 T00041007  RH  092%=      5-min Rain = 0
KAHS 090130Z 32006KT 00/M01 A3029 RMK A01 T00041007  RH  092%=      5-min Rain = 0
KAHS 090131Z 32006KT 00/M01 A3029 RMK A01 T00041007  RH  092%=      5-min Rain = 0
KAHS 090132Z 32006KT 00/M01 A3029 RMK A01 T00041007  RH  092%=      5-min Rain = 0
KAHS 090133Z 32006KT 00/M01 A3029 RMK A01 T00041007  RH  092%=      5-min Rain = 0
KAHS 090134Z 32006KT 00/M01 A3029 RMK A01 T00041007  RH  092%=      5-min Rain = 0
KAHS 090135Z 32006KT 00/M01 A3029 RMK A01 T00041007  RH  092%=      5-min Rain = 0
KAHS 090136Z 32006KT 00/M01 A3029 RMK A01 T00041007  RH  092%=      5-min Rain = 0
KAHS 090137Z 32006KT 00/M01 A3029 RMK A01 T00041007  RH  092%=      5-min Rain = 0
KAHS 090138Z 32006KT 00/M01 A3029 RMK A01 T00041007  RH  092%=      5-min Rain = 0
KAHS 090139Z 32006KT 00/M01 A3029 RMK A01 T00041008  RH  092%=      5-min Rain = 0
KAHS 090140Z 32006KT 00/M01 A3029 RMK A01 T00041008  RH  092%=      5-min Rain = 0
KAHS 090141Z 31006KT 00/M01 A3029 RMK A01 T00031008  RH  092%=      5-min Rain = 0
KAHS 090142Z 31006KT 00/M01 A3029 RMK A01 T00031008  RH  092%=      5-min Rain = 0
KAHS 090143Z 31006KT 00/M01 A3029 RMK A01 T00031008  RH  092%=      5-min Rain = 0
KAHS 090144Z 31007KT 00/M01 A3029 RMK A01 T00031008  RH  093%=      5-min Rain = 0
KAHS 090145Z 31007KT 00/M01 A3029 RMK A01 T00021008  RH  093%=      5-min Rain = 0
KAHS 090146Z 31007KT 00/M01 A3029 RMK A01 T00021008  RH  093%=      5-min Rain = 0
KAHS 090147Z 31006KT 00/M01 A3029 RMK A01 T00021008  RH  093%=      5-min Rain = 0
KAHS 090148Z 31006KT 00/M01 A3029 RMK A01 T00021008  RH  093%=      5-min Rain = 0
KAHS 090149Z 31006KT 00/M01 A3029 RMK A01 T00021008  RH  093%=      5-min Rain = 0
KAHS 090150Z 31006KT 00/M01 A3029 RMK A01 T00011009  RH  093%=      5-min Rain = 0
KAHS 090151Z 31006KT 00/M01 A3029 RMK A01 T00011009  RH  093%=      5-min Rain = 0
KAHS 090152Z 31006KT 00/M01 A3029 RMK A01 T00011009  RH  093%=      5-min Rain = 0
KAHS 090153Z 31007KT 00/M01 A3029 RMK A01 T00011009  RH  093%=      5-min Rain = 0
KAHS 090154Z 31007KT 00/01 A3029 RMK A01 T000000-9  RH  093%=      5-min Rain = 0
KAHS 090155Z 31006KT 00/01 A3029 RMK A01 T000000-9  RH  093%=      5-min Rain = 0
KAHS 090156Z 31006KT 00/01 A3029 RMK A01 T000000-9  RH  093%=      5-min Rain = 0
KAHS 090157Z 31006KT 00/01 A3029 RMK A01 T000000-9  RH  094%=      5-min Rain = 0
KAHS 090158Z 31006KT 00/01 A3029 RMK A01 T000000-9  RH  094%=      5-min Rain = 0
KAHS 090159Z 31006KT 00/01 A3029 RMK A01 T000000-9  RH  094%=      5-min Rain = 0
KAHS 090200Z 31006KT 00/01 A3029 RMK A01 T00-000-9  RH  094%=      5-min Rain = 0
KAHS 090201Z 32006KT 00/01 A3029 RMK A01 T00-000-9  RH  094%=      5-min Rain = 0
KAHS 090202Z 32005KT 00/01 A3029 RMK A01 T00-000-9  RH  094%=      5-min Rain = 0
KAHS 090203Z 32005KT 00/01 A3029 RMK A01 T00-000-9  RH  094%=      5-min Rain = 0
KAHS 090204Z 32005KT 00/01 A3029 RMK A01 T00-000-9  RH  094%=      5-min Rain = 0
KAHS 090205Z 32005KT 00/01 A3029 RMK A01 T00-000-9  RH  094%=      5-min Rain = 0
KAHS 090206Z 32005KT 00/01 A3029 RMK A01 T00-000-9  RH  094%=      5-min Rain = 0
KAHS 090207Z 32005KT 00/01 A3029 RMK A01 T00-000-9  RH  094%=      5-min Rain = 0
KAHS 090208Z 32006KT 00/01 A3029 RMK A01 T00-000-9  RH  094%=      5-min Rain = 0
KAHS 090209Z 33006KT M00/M01 A3029 RMK A01 T10011010  RH  094%=      5-min Rain = 0
KAHS 090210Z 33006KT M00/M01 A3029 RMK A01 T10011010  RH  093%=      5-min Rain = 0
KAHS 090211Z 33006KT M00/M01 A3029 RMK A01 T10021011  RH  093%=      5-min Rain = 0
KAHS 090212Z 33006KT M00/M01 A3029 RMK A01 T10011011  RH  093%=      5-min Rain = 0
KAHS 090213Z 33006KT M00/M01 A3029 RMK A01 T10011011  RH  093%=      5-min Rain = 0
KAHS 090214Z 33006KT M00/M01 A3029 RMK A01 T10011011  RH  093%=      5-min Rain = 0
KAHS 090215Z 33006KT M00/M01 A3029 RMK A01 T10021012  RH  093%=      5-min Rain = 0
KAHS 090216Z 33005KT M00/M01 A3029 RMK A01 T10021011  RH  093%=      5-min Rain = 0
KAHS 090217Z 33006KT M00/M01 A3029 RMK A01 T10021012  RH  093%=      5-min Rain = 0
KAHS 090218Z 33006KT M00/M01 A3029 RMK A01 T10021011  RH  093%=      5-min Rain = 0
KAHS 090219Z 33006KT M00/M01 A3029 RMK A01 T10021011  RH  093%=      5-min Rain = 0
KAHS 090220Z 33006KT M00/M01 A3029 RMK A01 T10021012  RH  093%=      5-min Rain = 0
KAHS 090221Z 33006KT M00/M01 A303 RMK A01 T10011012  RH  093%=      5-min Rain = 0
KAHS 090222Z 33006KT M00/M01 A303 RMK A01 T10021012  RH  093%=      5-min Rain = 0
KAHS 090223Z 33007KT M00/M01 A303 RMK A01 T10021012  RH  093%=      5-min Rain = 0
KAHS 090224Z 32006KT M00/M01 A303 RMK A01 T10021012  RH  093%=      5-min Rain = 0
KAHS 090225Z 33006KT M00/M01 A303 RMK A01 T10021012  RH  093%=      5-min Rain = 0
KAHS 090226Z 32006KT M00/M01 A303 RMK A01 T10021012  RH  093%=      5-min Rain = 0
KAHS 090227Z 32006KT M00/M01 A303 RMK A01 T10021012  RH  093%=      5-min Rain = 0
KAHS 090228Z 33006KT M00/M01 A303 RMK A01 T10021012  RH  093%=      5-min Rain = 0
KAHS 090229Z 32006KT M00/M01 A303 RMK A01 T10021012  RH  093%=      5-min Rain = 0
KAHS 090230Z 33006KT M00/M01 A303 RMK A01 T10021012  RH  093%=      5-min Rain = 0
KAHS 090231Z 32007KT M00/M01 A303 RMK A01 T10021012  RH  093%=      5-min Rain = 0
KAHS 090232Z 32006KT M00/M01 A303 RMK A01 T10021012  RH  093%=      5-min Rain = 0
KAHS 090233Z 32007KT M00/M01 A303 RMK A01 T10021013  RH  093%=      5-min Rain = 0
KAHS 090234Z 33006KT M00/M01 A303 RMK A01 T10021013  RH  093%=      5-min Rain = 0
KAHS 090235Z 33007KT M00/M01 A303 RMK A01 T10021013  RH  093%=      5-min Rain = 0
KAHS 090236Z 32007KT M00/M01 A303 RMK A01 T10021013  RH  093%=      5-min Rain = 0
KAHS 090237Z 32006KT M00/M01 A303 RMK A01 T10021013  RH  093%=      5-min Rain = 0
KAHS 090238Z 32007KT M00/M01 A303 RMK A01 T10021013  RH  093%=      5-min Rain = 0
KAHS 090239Z 32007KT M00/M01 A303 RMK A01 T10021013  RH  093%=      5-min Rain = 0
KAHS 090240Z 32007KT M00/M01 A303 RMK A01 T10021013  RH  093%=      5-min Rain = 0
KAHS 090241Z 32007KT M00/M01 A303 RMK A01 T10021013  RH  092%=      5-min Rain = 0
KAHS 090242Z 32007KT M00/M01 A303 RMK A01 T10021013  RH  092%=      5-min Rain = 0
KAHS 090243Z 32007KT M00/M01 A303 RMK A01 T10021013  RH  092%=      5-min Rain = 0
KAHS 090244Z 32007KT M00/M01 A303 RMK A01 T10021013  RH  092%=      5-min Rain = 0
KAHS 090245Z 32007KT M00/M01 A303 RMK A01 T10021014  RH  092%=      5-min Rain = 0
KAHS 090246Z 31006KT M00/M01 A303 RMK A01 T10031014  RH  092%=      5-min Rain = 0
KAHS 090247Z 31006KT M00/M01 A303 RMK A01 T10031014  RH  092%=      5-min Rain = 0
KAHS 090248Z 31007KT M00/M01 A303 RMK A01 T10031014  RH  092%=      5-min Rain = 0
KAHS 090249Z 31007KT M00/M01 A303 RMK A01 T10031014  RH  092%=      5-min Rain = 0
KAHS 090250Z 31007KT M00/M01 A303 RMK A01 T10031014  RH  093%=      5-min Rain = 0
KAHS 090251Z 31007KT M00/M01 A303 RMK A01 T10041014  RH  093%=      5-min Rain = 0
KAHS 090252Z 31007KT M00/M01 A303 RMK A01 T10041014  RH  093%=      5-min Rain = 0
KAHS 090253Z 31007KT M00/M01 A303 RMK A01 T10041014  RH  093%=      5-min Rain = 0
KAHS 090254Z 31007KT M00/M01 A303 RMK A01 T10041014  RH  093%=      5-min Rain = 0
KAHS 090255Z 31007KT M00/M01 A303 RMK A01 T10031014  RH  093%=      5-min Rain = 0
KAHS 090256Z 31008KT M00/M01 A303 RMK A01 T10041014  RH  093%=      5-min Rain = 0
KAHS 090257Z 31008KT M00/M01 A303 RMK A01 T10041014  RH  093%=      5-min Rain = 0
KAHS 090258Z 31007KT M00/M01 A303 RMK A01 T10041014  RH  093%=      5-min Rain = 0
KAHS 090259Z 31007KT M00/M01 A303 RMK A01 T10041014  RH  093%=      5-min Rain = 0
KAHS 090300Z 31007KT M01/M01 A303 RMK A01 T10051014  RH  093%=      5-min Rain = 0
KAHS 090301Z 31007KT M01/M02 A303 RMK A01 T10051015  RH  093%=      5-min Rain = 0
KAHS 090302Z 31007KT M01/M01 A303 RMK A01 T10051014  RH  093%=      5-min Rain = 0
KAHS 090303Z 31007KT M01/M01 A303 RMK A01 T10051014  RH  093%=      5-min Rain = 0
KAHS 090304Z 31007KT M01/M01 A303 RMK A01 T10051014  RH  093%=      5-min Rain = 0
KAHS 090305Z 31007KT M01/M01 A303 RMK A01 T10051014  RH  094%=      5-min Rain = 0
KAHS 090306Z 31007KT M01/M01 A303 RMK A01 T10051014  RH  094%=      5-min Rain = 0
KAHS 090307Z 31007KT M01/M01 A303 RMK A01 T10051014  RH  093%=      5-min Rain = 0
KAHS 090308Z 31007KT M01/M01 A303 RMK A01 T10051014  RH  093%=      5-min Rain = 0
KAHS 090309Z 31007KT M00/M01 A303 RMK A01 T10041014  RH  093%=      5-min Rain = 0
KAHS 090310Z 31006KT M00/M01 A303 RMK A01 T10041014  RH  093%=      5-min Rain = 0
KAHS 090311Z 31007KT M00/M01 A303 RMK A01 T10041014  RH  093%=      5-min Rain = 0
KAHS 090312Z 31007KT M00/M01 A303 RMK A01 T10041014  RH  093%=      5-min Rain = 0
KAHS 090313Z 31007KT M00/M01 A303 RMK A01 T10041014  RH  093%=      5-min Rain = 0
KAHS 090314Z 31007KT M00/M01 A303 RMK A01 T10041014  RH  093%=      5-min Rain = 0
KAHS 090315Z 30007KT M00/M01 A303 RMK A01 T10041014  RH  093%=      5-min Rain = 0
KAHS 090316Z 31007KT M00/M01 A303 RMK A01 T10041014  RH  093%=      5-min Rain = 0
KAHS 090317Z 30007KT M00/M01 A303 RMK A01 T10041014  RH  093%=      5-min Rain = 0
KAHS 090318Z 31006KT M00/M01 A303 RMK A01 T10041014  RH  093%=      5-min Rain = 0
KAHS 090319Z 31007KT M00/M01 A303 RMK A01 T10031014  RH  093%=      5-min Rain = 0
KAHS 090320Z 31006KT M00/M01 A303 RMK A01 T10041014  RH  093%=      5-min Rain = 0
KAHS 090321Z 30007KT M00/M02 A303 RMK A01 T10041015  RH  093%=      5-min Rain = 0
KAHS 090322Z 31007KT M00/M02 A303 RMK A01 T10041015  RH  093%=      5-min Rain = 0
KAHS 090323Z 30007KT M00/M02 A303 RMK A01 T10041015  RH  093%=      5-min Rain = 0
KAHS 090324Z 30006KT M00/M02 A303 RMK A01 T10041015  RH  093%=      5-min Rain = 0
KAHS 090325Z 30007KT M01/M02 A3031 RMK A01 T10051015  RH  093%=      5-min Rain = 0
KAHS 090326Z 30007KT M00/M01 A3031 RMK A01 T10041014  RH  093%=      5-min Rain = 0
KAHS 090327Z 30007KT M00/M01 A3031 RMK A01 T10041014  RH  093%=      5-min Rain = 0
KAHS 090328Z 30007KT M01/M02 A3031 RMK A01 T10051015  RH  093%=      5-min Rain = 0
KAHS 090329Z 30006KT M00/M01 A3031 RMK A01 T10041014  RH  093%=      5-min Rain = 0
KAHS 090330Z 30006KT M01/M02 A3031 RMK A01 T10051015  RH  093%=      5-min Rain = 0
KAHS 090331Z 30007KT M01/M02 A303 RMK A01 T10051015  RH  093%=      5-min Rain = 0
KAHS 090332Z 30007KT M01/M02 A303 RMK A01 T10051015  RH  093%=      5-min Rain = 0
KAHS 090333Z 30006KT M01/M02 A3031 RMK A01 T10051015  RH  093%=      5-min Rain = 0
KAHS 090334Z 30006KT M01/M02 A3031 RMK A01 T10051015  RH  093%=      5-min Rain = 0
KAHS 090335Z 30006KT M01/M02 A3031 RMK A01 T10051015  RH  093%=      5-min Rain = 0
KAHS 090336Z 30007KT M01/M02 A3031 RMK A01 T10051015  RH  093%=      5-min Rain = 0
KAHS 090337Z 30007KT M01/M02 A3031 RMK A01 T10051015  RH  093%=      5-min Rain = 0
KAHS 090338Z 30007KT M01/M02 A3031 RMK A01 T10051015  RH  093%=      5-min Rain = 0
KAHS 090339Z 30007KT M01/M02 A3031 RMK A01 T10051015  RH  093%=      5-min Rain = 0
KAHS 090340Z 30007KT M01/M02 A3031 RMK A01 T10051015  RH  093%=      5-min Rain = 0
KAHS 090341Z 30007KT M01/M02 A3031 RMK A01 T10051015  RH  093%=      5-min Rain = 0
KAHS 090342Z 30007KT M01/M02 A3031 RMK A01 T10051015  RH  093%=      5-min Rain = 0
KAHS 090343Z 30007KT M01/M02 A3031 RMK A01 T10051015  RH  093%=      5-min Rain = 0
KAHS 090344Z 30007KT M00/M02 A3031 RMK A01 T10041015  RH  093%=      5-min Rain = 0
KAHS 090345Z 30006KT M00/M01 A3031 RMK A01 T10041014  RH  093%=      5-min Rain = 0
KAHS 090346Z 30006KT M00/M01 A3031 RMK A01 T10041014  RH  093%=      5-min Rain = 0
KAHS 090347Z 30006KT M00/M02 A3031 RMK A01 T10041015  RH  092%=      5-min Rain = 0
KAHS 090348Z 30006KT M00/M02 A3031 RMK A01 T10041015  RH  092%=      5-min Rain = 0
KAHS 090349Z 30006KT M00/M02 A3031 RMK A01 T10041015  RH  093%=      5-min Rain = 0
KAHS 090350Z 30006KT M00/M01 A3031 RMK A01 T10041014  RH  092%=      5-min Rain = 0
KAHS 090351Z 30006KT M00/M02 A3031 RMK A01 T10041015  RH  092%=      5-min Rain = 0
KAHS 090352Z 29006KT M00/M02 A3031 RMK A01 T10041015  RH  092%=      5-min Rain = 0
KAHS 090353Z 29005KT M00/M02 A3031 RMK A01 T10041015  RH  092%=      5-min Rain = 0
KAHS 090354Z 29006KT M00/M02 A3031 RMK A01 T10041015  RH  092%=      5-min Rain = 0
KAHS 090355Z 29005KT M01/M02 A3031 RMK A01 T10051015  RH  092%=      5-min Rain = 0
KAHS 090356Z 28004KT M01/M02 A3031 RMK A01 T10051015  RH  093%=      5-min Rain = 0
KAHS 090357Z 28003KT M01/M02 A3031 RMK A01 T10051016  RH  093%=      5-min Rain = 0
KAHS 090358Z 28003KT M01/M02 A3031 RMK A01 T10051016  RH  093%=      5-min Rain = 0
KAHS 090359Z 27003KT M01/M02 A3031 RMK A01 T10061017  RH  093%=      5-min Rain = 0
KAHS 090400Z 26003KT M01/M02 A3031 RMK A01 T10071017  RH  093%=      5-min Rain = 0
KAHS 090401Z 25003KT M01/M02 A3031 RMK A01 T10071017  RH  093%=      5-min Rain = 0
KAHS 090402Z 24003KT M01/M02 A3031 RMK A01 T10081018  RH  093%=      5-min Rain = 0
KAHS 090403Z 24003KT M01/M02 A3031 RMK A01 T10081018  RH  093%=      5-min Rain = 0
KAHS 090404Z 23003KT M01/M02 A3031 RMK A01 T10091019  RH  093%=      5-min Rain = 0
KAHS 090405Z 23004KT M01/M02 A3031 RMK A01 T10101019  RH  093%=      5-min Rain = 0
KAHS 090406Z 24004KT M01/M02 A3031 RMK A01 T10101020  RH  094%=      5-min Rain = 0
KAHS 090407Z 24004KT M01/M02 A3031 RMK A01 T10111019  RH  094%=      5-min Rain = 0
KAHS 090408Z 24004KT M01/M02 A3031 RMK A01 T10111020  RH  094%=      5-min Rain = 0
KAHS 090409Z 23003KT M01/M02 A3031 RMK A01 T10111019  RH  094%=      5-min Rain = 0
KAHS 090410Z 23003KT M01/M02 A3031 RMK A01 T10111019  RH  094%=      5-min Rain = 0
KAHS 090411Z 23002KT M01/M02 A3031 RMK A01 T10111019  RH  095%=      5-min Rain = 0
KAHS 090412Z 24002KT M01/M02 A3031 RMK A01 T10111019  RH  095%=      5-min Rain = 0
KAHS 090413Z 24002KT M01/M02 A3031 RMK A01 T10111018  RH  095%=      5-min Rain = 0
KAHS 090414Z 25002KT M01/M02 A3031 RMK A01 T10111018  RH  095%=      5-min Rain = 0
KAHS 090415Z 26002KT M01/M02 A3031 RMK A01 T10111018  RH  095%=      5-min Rain = 0
KAHS 090416Z 26002KT M01/M02 A3031 RMK A01 T10111018  RH  095%=      5-min Rain = 0
KAHS 090417Z 26002KT M01/M02 A3031 RMK A01 T10111018  RH  095%=      5-min Rain = 0
KAHS 090418Z 26002KT M01/M02 A3031 RMK A01 T10121019  RH  095%=      5-min Rain = 0
KAHS 090419Z 26003KT M01/M02 A3032 RMK A01 T10121019  RH  095%=      5-min Rain = 0
KAHS 090420Z 26003KT M01/M02 A3032 RMK A01 T10121019  RH  095%=      5-min Rain = 0
KAHS 090421Z 25003KT M01/M02 A3032 RMK A01 T10121019  RH  095%=      5-min Rain = 0
KAHS 090422Z 26003KT M01/M02 A3032 RMK A01 T10121018  RH  095%=      5-min Rain = 0
KAHS 090423Z 26003KT M01/M02 A3032 RMK A01 T10121019  RH  095%=      5-min Rain = 0
KAHS 090424Z 26003KT M01/M02 A3032 RMK A01 T10131019  RH  095%=      5-min Rain = 0
KAHS 090425Z 26002KT M01/M02 A3032 RMK A01 T10131019  RH  095%=      5-min Rain = 0
KAHS 090426Z 26002KT M01/M02 A3032 RMK A01 T10131019  RH  096%=      5-min Rain = 0
KAHS 090427Z 26002KT M01/M02 A3032 RMK A01 T10131019  RH  096%=      5-min Rain = 0
KAHS 090428Z 26002KT M01/M02 A3032 RMK A01 T10121019  RH  096%=      5-min Rain = 0
KAHS 090429Z 26002KT M01/M02 A3032 RMK A01 T10121018  RH  096%=      5-min Rain = 0
KAHS 090430Z 26002KT M01/M02 A3032 RMK A01 T10121018  RH  096%=      5-min Rain = 0
KAHS 090431Z 26002KT M01/M02 A3032 RMK A01 T10121018  RH  096%=      5-min Rain = 0
KAHS 090432Z 26002KT M01/M02 A3032 RMK A01 T10121018  RH  096%=      5-min Rain = 0
KAHS 090433Z 26002KT M01/M02 A3032 RMK A01 T10121018  RH  096%=      5-min Rain = 0
KAHS 090434Z 26002KT M01/M02 A3032 RMK A01 T10121018  RH  096%=      5-min Rain = 0
KAHS 090435Z 26002KT M01/M02 A3032 RMK A01 T10121018  RH  096%=      5-min Rain = 0
KAHS 090436Z 26002KT M01/M02 A3032 RMK A01 T10121018  RH  096%=      5-min Rain = 0
KAHS 090437Z 25002KT M01/M02 A3032 RMK A01 T10131018  RH  096%=      5-min Rain = 0
KAHS 090438Z 25002KT M01/M02 A3032 RMK A01 T10131019  RH  096%=      5-min Rain = 0
KAHS 090439Z 25002KT M01/M02 A3032 RMK A01 T10131019  RH  096%=      5-min Rain = 0
KAHS 090440Z 26002KT M01/M02 A3032 RMK A01 T10131018  RH  096%=      5-min Rain = 0
KAHS 090441Z 25002KT M01/M02 A3032 RMK A01 T10131019  RH  096%=      5-min Rain = 0
KAHS 090442Z 23002KT M01/M02 A3032 RMK A01 T10131019  RH  096%=      5-min Rain = 0
KAHS 090443Z 23002KT M01/M02 A3032 RMK A01 T10131019  RH  096%=      5-min Rain = 0
KAHS 090444Z 22002KT M01/M02 A3032 RMK A01 T10141020  RH  096%=      5-min Rain = 0
KAHS 090445Z 22003KT M01/M02 A3032 RMK A01 T10141020  RH  096%=      5-min Rain = 0
KAHS 090446Z 22003KT M02/M02 A3032 RMK A01 T10151021  RH  096%=      5-min Rain = 0
KAHS 090447Z 23003KT M02/M02 A3032 RMK A01 T10161022  RH  096%=      5-min Rain = 0
KAHS 090448Z 23002KT M02/M02 A3032 RMK A01 T10161022  RH  096%=      5-min Rain = 0
KAHS 090449Z 22003KT M02/M02 A3032 RMK A01 T10161022  RH  096%=      5-min Rain = 0
KAHS 090450Z 23003KT M02/M02 A3032 RMK A01 T10161022  RH  096%=      5-min Rain = 0
KAHS 090451Z 22003KT M02/M02 A3032 RMK A01 T10171022  RH  096%=      5-min Rain = 0
KAHS 090452Z 22003KT M02/M02 A3032 RMK A01 T10171022  RH  096%=      5-min Rain = 0
KAHS 090453Z 23003KT M02/M02 A3032 RMK A01 T10171022  RH  096%=      5-min Rain = 0
KAHS 090454Z 23003KT M02/M02 A3032 RMK A01 T10171022  RH  096%=      5-min Rain = 0
KAHS 090455Z 23002KT M02/M02 A3032 RMK A01 T10161022  RH  096%=      5-min Rain = 0
KAHS 090456Z 23002KT M02/M02 A3032 RMK A01 T10171022  RH  096%=      5-min Rain = 0
KAHS 090457Z 23002KT M02/M02 A3032 RMK A01 T10171022  RH  096%=      5-min Rain = 0
KAHS 090458Z 23002KT M02/M02 A3032 RMK A01 T10171021  RH  097%=      5-min Rain = 0
KAHS 090459Z 24002KT M02/M02 A3032 RMK A01 T10171021  RH  097%=      5-min Rain = 0
KAHS 090500Z 24002KT M02/M02 A3032 RMK A01 T10161021  RH  097%=      5-min Rain = 0
KAHS 090501Z 24002KT M02/M02 A3032 RMK A01 T10161021  RH  097%=      5-min Rain = 0
KAHS 090502Z 24002KT M02/M02 A3032 RMK A01 T10161020  RH  097%=      5-min Rain = 0
KAHS 090503Z 24003KT M02/M02 A3032 RMK A01 T10161020  RH  097%=      5-min Rain = 0
KAHS 090504Z 24003KT M02/M02 A3032 RMK A01 T10161020  RH  097%=      5-min Rain = 0
KAHS 090505Z 24003KT M02/M02 A3032 RMK A01 T10151020  RH  097%=      5-min Rain = 0
KAHS 090506Z 24003KT M02/M02 A3032 RMK A01 T10151020  RH  097%=      5-min Rain = 0
KAHS 090507Z 24003KT M02/M02 A3032 RMK A01 T10151020  RH  097%=      5-min Rain = 0
KAHS 090508Z 25003KT M02/M02 A3032 RMK A01 T10151020  RH  097%=      5-min Rain = 0
KAHS 090509Z 26003KT M02/M02 A3032 RMK A01 T10151020  RH  097%=      5-min Rain = 0
KAHS 090510Z 26003KT M02/M02 A3032 RMK A01 T10151020  RH  097%=      5-min Rain = 0
KAHS 090511Z 26003KT M02/M02 A3032 RMK A01 T10151020  RH  097%=      5-min Rain = 0
KAHS 090512Z 27003KT M02/M02 A3032 RMK A01 T10151019  RH  097%=      5-min Rain = 0
KAHS 090513Z 27003KT M02/M02 A3032 RMK A01 T10151019  RH  097%=      5-min Rain = 0
KAHS 090514Z 27003KT M02/M02 A3032 RMK A01 T10151019  RH  097%=      5-min Rain = 0
KAHS 090515Z 28003KT M02/M02 A3032 RMK A01 T10151019  RH  097%=      5-min Rain = 0
KAHS 090516Z 28003KT M02/M02 A3032 RMK A01 T10151019  RH  097%=      5-min Rain = 0
KAHS 090517Z 28003KT M02/M02 A3032 RMK A01 T10151019  RH  097%=      5-min Rain = 0
KAHS 090518Z 28003KT M01/M02 A3032 RMK A01 T10141019  RH  097%=      5-min Rain = 0
KAHS 090519Z 28003KT M01/M02 A3032 RMK A01 T10141018  RH  097%=      5-min Rain = 0
KAHS 090520Z 28003KT M01/M02 A3032 RMK A01 T10141018  RH  097%=      5-min Rain = 0
KAHS 090521Z 27003KT M01/M02 A3032 RMK A01 T10141019  RH  097%=      5-min Rain = 0
KAHS 090522Z 27003KT M02/M02 A3032 RMK A01 T10151019  RH  097%=      5-min Rain = 0
KAHS 090523Z 27003KT M02/M02 A3032 RMK A01 T10151019  RH  097%=      5-min Rain = 0
KAHS 090524Z 28003KT M02/M02 A3032 RMK A01 T10151019  RH  097%=      5-min Rain = 0
KAHS 090525Z 27003KT M02/M02 A3032 RMK A01 T10151020  RH  097%=      5-min Rain = 0
KAHS 090526Z 27003KT M02/M02 A3032 RMK A01 T10151020  RH  097%=      5-min Rain = 0
KAHS 090527Z 27003KT M02/M02 A3032 RMK A01 T10151019  RH  097%=      5-min Rain = 0
KAHS 090528Z 27003KT M02/M02 A3032 RMK A01 T10151020  RH  097%=      5-min Rain = 0
KAHS 090529Z 27003KT M02/M02 A3032 RMK A01 T10161020  RH  097%=      5-min Rain = 0
KAHS 090530Z 28004KT M02/M02 A3032 RMK A01 T10161021  RH  097%=      5-min Rain = 0
KAHS 090531Z 28004KT M02/M02 A3032 RMK A01 T10161021  RH  097%=      5-min Rain = 0
KAHS 090532Z 28004KT M02/M02 A3032 RMK A01 T10161021  RH  097%=      5-min Rain = 0
KAHS 090533Z 28004KT M02/M02 A3032 RMK A01 T10161021  RH  097%=      5-min Rain = 0
KAHS 090534Z 28004KT M02/M02 A3032 RMK A01 T10161021  RH  097%=      5-min Rain = 0
KAHS 090535Z 27004KT M02/M02 A3032 RMK A01 T10161021  RH  097%=      5-min Rain = 0
KAHS 090536Z 27004KT M02/M02 A3032 RMK A01 T10161021  RH  097%=      5-min Rain = 0
KAHS 090537Z 27004KT M02/M02 A3032 RMK A01 T10161021  RH  097%=      5-min Rain = 0
KAHS 090538Z 27003KT M02/M02 A3032 RMK A01 T10161021  RH  097%=      5-min Rain = 0
KAHS 090539Z 26003KT M02/M02 A3032 RMK A01 T10161021  RH  097%=      5-min Rain = 0
KAHS 090540Z 26003KT M02/M02 A3032 RMK A01 T10161021  RH  097%=      5-min Rain = 0
KAHS 090541Z 26003KT M02/M02 A3032 RMK A01 T10161021  RH  097%=      5-min Rain = 0
KAHS 090542Z 25003KT M02/M02 A3031 RMK A01 T10161021  RH  097%=      5-min Rain = 0
KAHS 090543Z 25003KT M02/M02 A3031 RMK A01 T10151020  RH  097%=      5-min Rain = 0
KAHS 090544Z 25003KT M02/M02 A3031 RMK A01 T10151020  RH  097%=      5-min Rain = 0
KAHS 090545Z 25003KT M02/M02 A3031 RMK A01 T10151020  RH  097%=      5-min Rain = 0
KAHS 090546Z 25003KT M02/M02 A3031 RMK A01 T10151020  RH  097%=      5-min Rain = 0
KAHS 090547Z 25003KT M02/M02 A3031 RMK A01 T10151020  RH  097%=      5-min Rain = 0
KAHS 090548Z 25003KT M02/M02 A3031 RMK A01 T10151020  RH  097%=      5-min Rain = 0
KAHS 090549Z 26003KT M02/M02 A3031 RMK A01 T10151020  RH  097%=      5-min Rain = 0
KAHS 090550Z 26003KT M02/M02 A3031 RMK A01 T10151020  RH  097%=      5-min Rain = 0
KAHS 090551Z 27003KT M02/M02 A3031 RMK A01 T10151020  RH  097%=      5-min Rain = 0
KAHS 090552Z 27003KT M02/M02 A3031 RMK A01 T10161020  RH  097%=      5-min Rain = 0
KAHS 090553Z 28003KT M02/M02 A3031 RMK A01 T10161021  RH  097%=      5-min Rain = 0
KAHS 090554Z 29003KT M02/M02 A3031 RMK A01 T10161021  RH  096%=      5-min Rain = 0
KAHS 090555Z 29004KT M02/M02 A3031 RMK A01 T10171022  RH  096%=      5-min Rain = 0
KAHS 090556Z 29004KT M02/M02 A3031 RMK A01 T10171021  RH  096%=      5-min Rain = 0
KAHS 090557Z 29004KT M02/M02 A3031 RMK A01 T10161021  RH  097%=      5-min Rain = 0
KAHS 090558Z 29004KT M02/M02 A3031 RMK A01 T10171021  RH  097%=      5-min Rain = 0
KAHS 090559Z 29004KT M02/M02 A3031 RMK A01 T10171021  RH  097%=      5-min Rain = 0

Page generated in 0.0717 seconds.